<?xml version="1.0" encoding="UTF-8" standalone="no" ?>
<gpx xmlns="http://www.topografix.com/GPX/1/1" xmlns:xsi="http://www.w3.org/2001/XMLSchema-instance" xsi:schemaLocation="http://www.topografix.com/GPX/1/1 http://www.topografix.com/GPX/1/1/gpx.xsd" version="1.1" creator="VisuGPX - https://www.visugpx.com">
  <metadata>
    <name>Bonsecours 65km</name>
  </metadata>
  <trk>
    <name><![CDATA[14836760-Bonsecours 65km]]></name>
    <trkseg>
      <trkpt lat="50.50326" lon="3.58884">
        <ele>43</ele>
        <time>2022-05-26T01:42:05Z</time>
      </trkpt>
      <trkpt lat="50.50268" lon="3.5888">
        <ele>43</ele>
        <time>2022-05-26T01:42:19Z</time>
      </trkpt>
      <trkpt lat="50.50218" lon="3.5888">
        <ele>42</ele>
        <time>2022-05-26T01:42:30Z</time>
      </trkpt>
      <trkpt lat="50.50211" lon="3.58886">
        <ele>42</ele>
        <time>2022-05-26T01:42:32Z</time>
      </trkpt>
      <trkpt lat="50.50201" lon="3.5891">
        <ele>42</ele>
        <time>2022-05-26T01:42:36Z</time>
      </trkpt>
      <trkpt lat="50.50186" lon="3.58916">
        <ele>42</ele>
        <time>2022-05-26T01:42:40Z</time>
      </trkpt>
      <trkpt lat="50.50179" lon="3.58916">
        <ele>42</ele>
        <time>2022-05-26T01:42:42Z</time>
      </trkpt>
      <trkpt lat="50.50173" lon="3.5892">
        <ele>42</ele>
        <time>2022-05-26T01:42:43Z</time>
      </trkpt>
      <trkpt lat="50.50158" lon="3.58922">
        <ele>42</ele>
        <time>2022-05-26T01:42:47Z</time>
      </trkpt>
      <trkpt lat="50.49987" lon="3.58919">
        <ele>41</ele>
        <time>2022-05-26T01:43:27Z</time>
      </trkpt>
      <trkpt lat="50.49942" lon="3.58925">
        <ele>40</ele>
        <time>2022-05-26T01:43:37Z</time>
      </trkpt>
      <trkpt lat="50.49784" lon="3.58979">
        <ele>39</ele>
        <time>2022-05-26T01:44:15Z</time>
      </trkpt>
      <trkpt lat="50.49687" lon="3.59008">
        <ele>40</ele>
        <time>2022-05-26T01:44:38Z</time>
      </trkpt>
      <trkpt lat="50.49525" lon="3.59063">
        <ele>40</ele>
        <time>2022-05-26T01:45:17Z</time>
      </trkpt>
      <trkpt lat="50.49457" lon="3.591">
        <ele>41</ele>
        <time>2022-05-26T01:45:33Z</time>
      </trkpt>
      <trkpt lat="50.49366" lon="3.59154">
        <ele>42</ele>
        <time>2022-05-26T01:45:56Z</time>
      </trkpt>
      <trkpt lat="50.49209" lon="3.59255">
        <ele>50</ele>
        <time>2022-05-26T01:46:36Z</time>
      </trkpt>
      <trkpt lat="50.49169" lon="3.59278">
        <ele>53</ele>
        <time>2022-05-26T01:46:46Z</time>
      </trkpt>
      <trkpt lat="50.49083" lon="3.59319">
        <ele>55</ele>
        <time>2022-05-26T01:47:07Z</time>
      </trkpt>
      <trkpt lat="50.49073" lon="3.59335">
        <ele>55</ele>
        <time>2022-05-26T01:47:10Z</time>
      </trkpt>
      <trkpt lat="50.49097" lon="3.59408">
        <ele>53</ele>
        <time>2022-05-26T01:47:22Z</time>
      </trkpt>
      <trkpt lat="50.49146" lon="3.5954">
        <ele>55</ele>
        <time>2022-05-26T01:47:45Z</time>
      </trkpt>
      <trkpt lat="50.4928" lon="3.5989">
        <ele>54</ele>
        <time>2022-05-26T01:48:46Z</time>
      </trkpt>
      <trkpt lat="50.49382" lon="3.60213">
        <ele>53</ele>
        <time>2022-05-26T01:49:39Z</time>
      </trkpt>
      <trkpt lat="50.49534" lon="3.60709">
        <ele>49</ele>
        <time>2022-05-26T01:51:01Z</time>
      </trkpt>
      <trkpt lat="50.49576" lon="3.60747">
        <ele>50</ele>
        <time>2022-05-26T01:51:12Z</time>
      </trkpt>
      <trkpt lat="50.49634" lon="3.60828">
        <ele>52</ele>
        <time>2022-05-26T01:51:30Z</time>
      </trkpt>
      <trkpt lat="50.49652" lon="3.60877">
        <ele>52</ele>
        <time>2022-05-26T01:51:39Z</time>
      </trkpt>
      <trkpt lat="50.49688" lon="3.6094">
        <ele>53</ele>
        <time>2022-05-26T01:51:51Z</time>
      </trkpt>
      <trkpt lat="50.49696" lon="3.60959">
        <ele>54</ele>
        <time>2022-05-26T01:51:55Z</time>
      </trkpt>
      <trkpt lat="50.49695" lon="3.61104">
        <ele>55</ele>
        <time>2022-05-26T01:52:16Z</time>
      </trkpt>
      <trkpt lat="50.49698" lon="3.61121">
        <ele>55</ele>
        <time>2022-05-26T01:52:19Z</time>
      </trkpt>
      <trkpt lat="50.49651" lon="3.61128">
        <ele>52</ele>
        <time>2022-05-26T01:52:30Z</time>
      </trkpt>
      <trkpt lat="50.49595" lon="3.61124">
        <ele>50</ele>
        <time>2022-05-26T01:52:43Z</time>
      </trkpt>
      <trkpt lat="50.49545" lon="3.61143">
        <ele>48</ele>
        <time>2022-05-26T01:52:55Z</time>
      </trkpt>
      <trkpt lat="50.49471" lon="3.61201">
        <ele>47</ele>
        <time>2022-05-26T01:53:14Z</time>
      </trkpt>
      <trkpt lat="50.49456" lon="3.61227">
        <ele>47</ele>
        <time>2022-05-26T01:53:20Z</time>
      </trkpt>
      <trkpt lat="50.49427" lon="3.61256">
        <ele>46</ele>
        <time>2022-05-26T01:53:28Z</time>
      </trkpt>
      <trkpt lat="50.494" lon="3.61265">
        <ele>46</ele>
        <time>2022-05-26T01:53:34Z</time>
      </trkpt>
      <trkpt lat="50.4938" lon="3.61261">
        <ele>47</ele>
        <time>2022-05-26T01:53:39Z</time>
      </trkpt>
      <trkpt lat="50.49345" lon="3.61263">
        <ele>47</ele>
        <time>2022-05-26T01:53:47Z</time>
      </trkpt>
      <trkpt lat="50.49285" lon="3.613">
        <ele>48</ele>
        <time>2022-05-26T01:54:02Z</time>
      </trkpt>
      <trkpt lat="50.49258" lon="3.61337">
        <ele>48</ele>
        <time>2022-05-26T01:54:10Z</time>
      </trkpt>
      <trkpt lat="50.49248" lon="3.61372">
        <ele>47</ele>
        <time>2022-05-26T01:54:16Z</time>
      </trkpt>
      <trkpt lat="50.49217" lon="3.61392">
        <ele>47</ele>
        <time>2022-05-26T01:54:24Z</time>
      </trkpt>
      <trkpt lat="50.49175" lon="3.61432">
        <ele>48</ele>
        <time>2022-05-26T01:54:35Z</time>
      </trkpt>
      <trkpt lat="50.49152" lon="3.61475">
        <ele>47</ele>
        <time>2022-05-26T01:54:44Z</time>
      </trkpt>
      <trkpt lat="50.49123" lon="3.61486">
        <ele>47</ele>
        <time>2022-05-26T01:54:51Z</time>
      </trkpt>
      <trkpt lat="50.49063" lon="3.61539">
        <ele>46</ele>
        <time>2022-05-26T01:55:07Z</time>
      </trkpt>
      <trkpt lat="50.49039" lon="3.61535">
        <ele>45</ele>
        <time>2022-05-26T01:55:12Z</time>
      </trkpt>
      <trkpt lat="50.48995" lon="3.61562">
        <ele>43</ele>
        <time>2022-05-26T01:55:23Z</time>
      </trkpt>
      <trkpt lat="50.48749" lon="3.61838">
        <ele>39</ele>
        <time>2022-05-26T01:56:34Z</time>
      </trkpt>
      <trkpt lat="50.48683" lon="3.61916">
        <ele>39</ele>
        <time>2022-05-26T01:56:53Z</time>
      </trkpt>
      <trkpt lat="50.48527" lon="3.62219">
        <ele>35</ele>
        <time>2022-05-26T01:57:51Z</time>
      </trkpt>
      <trkpt lat="50.48502" lon="3.62272">
        <ele>34</ele>
        <time>2022-05-26T01:58:01Z</time>
      </trkpt>
      <trkpt lat="50.48582" lon="3.62295">
        <ele>41</ele>
        <time>2022-05-26T01:58:20Z</time>
      </trkpt>
      <trkpt lat="50.49222" lon="3.62463">
        <ele>44</ele>
        <time>2022-05-26T02:00:52Z</time>
      </trkpt>
      <trkpt lat="50.49394" lon="3.63356">
        <ele>52</ele>
        <time>2022-05-26T02:03:10Z</time>
      </trkpt>
      <trkpt lat="50.49457" lon="3.63305">
        <ele>54</ele>
        <time>2022-05-26T02:03:27Z</time>
      </trkpt>
      <trkpt lat="50.4949" lon="3.63273">
        <ele>55</ele>
        <time>2022-05-26T02:03:36Z</time>
      </trkpt>
      <trkpt lat="50.49513" lon="3.63239">
        <ele>56</ele>
        <time>2022-05-26T02:03:43Z</time>
      </trkpt>
      <trkpt lat="50.49559" lon="3.63538">
        <ele>63</ele>
        <time>2022-05-26T02:04:29Z</time>
      </trkpt>
      <trkpt lat="50.49559" lon="3.636">
        <ele>62</ele>
        <time>2022-05-26T02:04:38Z</time>
      </trkpt>
      <trkpt lat="50.49604" lon="3.637">
        <ele>63</ele>
        <time>2022-05-26T02:04:56Z</time>
      </trkpt>
      <trkpt lat="50.4963" lon="3.63721">
        <ele>64</ele>
        <time>2022-05-26T02:05:03Z</time>
      </trkpt>
      <trkpt lat="50.49713" lon="3.63755">
        <ele>63</ele>
        <time>2022-05-26T02:05:23Z</time>
      </trkpt>
      <trkpt lat="50.49788" lon="3.63781">
        <ele>59</ele>
        <time>2022-05-26T02:05:41Z</time>
      </trkpt>
      <trkpt lat="50.49788" lon="3.63793">
        <ele>60</ele>
        <time>2022-05-26T02:05:43Z</time>
      </trkpt>
      <trkpt lat="50.49698" lon="3.63963">
        <ele>59</ele>
        <time>2022-05-26T02:06:16Z</time>
      </trkpt>
      <trkpt lat="50.49654" lon="3.64026">
        <ele>57</ele>
        <time>2022-05-26T02:06:30Z</time>
      </trkpt>
      <trkpt lat="50.49631" lon="3.64053">
        <ele>56</ele>
        <time>2022-05-26T02:06:36Z</time>
      </trkpt>
      <trkpt lat="50.4955" lon="3.64132">
        <ele>50</ele>
        <time>2022-05-26T02:06:59Z</time>
      </trkpt>
      <trkpt lat="50.49556" lon="3.64189">
        <ele>48</ele>
        <time>2022-05-26T02:07:07Z</time>
      </trkpt>
      <trkpt lat="50.49565" lon="3.64225">
        <ele>48</ele>
        <time>2022-05-26T02:07:13Z</time>
      </trkpt>
      <trkpt lat="50.49577" lon="3.64295">
        <ele>47</ele>
        <time>2022-05-26T02:07:24Z</time>
      </trkpt>
      <trkpt lat="50.49632" lon="3.64246">
        <ele>50</ele>
        <time>2022-05-26T02:07:38Z</time>
      </trkpt>
      <trkpt lat="50.49658" lon="3.64211">
        <ele>53</ele>
        <time>2022-05-26T02:07:46Z</time>
      </trkpt>
      <trkpt lat="50.49687" lon="3.64157">
        <ele>54</ele>
        <time>2022-05-26T02:07:57Z</time>
      </trkpt>
      <trkpt lat="50.49692" lon="3.64136">
        <ele>54</ele>
        <time>2022-05-26T02:08:00Z</time>
      </trkpt>
      <trkpt lat="50.49821" lon="3.63928">
        <ele>57</ele>
        <time>2022-05-26T02:08:43Z</time>
      </trkpt>
      <trkpt lat="50.49831" lon="3.63913">
        <ele>57</ele>
        <time>2022-05-26T02:08:47Z</time>
      </trkpt>
      <trkpt lat="50.49853" lon="3.63902">
        <ele>55</ele>
        <time>2022-05-26T02:08:52Z</time>
      </trkpt>
      <trkpt lat="50.49856" lon="3.63894">
        <ele>55</ele>
        <time>2022-05-26T02:08:53Z</time>
      </trkpt>
      <trkpt lat="50.49856" lon="3.6388">
        <ele>55</ele>
        <time>2022-05-26T02:08:55Z</time>
      </trkpt>
      <trkpt lat="50.49846" lon="3.63852">
        <ele>56</ele>
        <time>2022-05-26T02:09:00Z</time>
      </trkpt>
      <trkpt lat="50.49873" lon="3.63874">
        <ele>54</ele>
        <time>2022-05-26T02:09:07Z</time>
      </trkpt>
      <trkpt lat="50.49914" lon="3.63848">
        <ele>52</ele>
        <time>2022-05-26T02:09:18Z</time>
      </trkpt>
      <trkpt lat="50.49947" lon="3.63813">
        <ele>48</ele>
        <time>2022-05-26T02:09:27Z</time>
      </trkpt>
      <trkpt lat="50.49989" lon="3.63726">
        <ele>46</ele>
        <time>2022-05-26T02:09:43Z</time>
      </trkpt>
      <trkpt lat="50.49991" lon="3.63771">
        <ele>45</ele>
        <time>2022-05-26T02:09:50Z</time>
      </trkpt>
      <trkpt lat="50.49941" lon="3.6385">
        <ele>49</ele>
        <time>2022-05-26T02:10:06Z</time>
      </trkpt>
      <trkpt lat="50.49904" lon="3.63901">
        <ele>51</ele>
        <time>2022-05-26T02:10:18Z</time>
      </trkpt>
      <trkpt lat="50.49848" lon="3.63971">
        <ele>51</ele>
        <time>2022-05-26T02:10:35Z</time>
      </trkpt>
      <trkpt lat="50.49731" lon="3.64153">
        <ele>51</ele>
        <time>2022-05-26T02:11:13Z</time>
      </trkpt>
      <trkpt lat="50.4971" lon="3.64196">
        <ele>51</ele>
        <time>2022-05-26T02:11:21Z</time>
      </trkpt>
      <trkpt lat="50.49629" lon="3.6434">
        <ele>45</ele>
        <time>2022-05-26T02:11:50Z</time>
      </trkpt>
      <trkpt lat="50.49625" lon="3.64359">
        <ele>45</ele>
        <time>2022-05-26T02:11:53Z</time>
      </trkpt>
      <trkpt lat="50.49575" lon="3.64456">
        <ele>43</ele>
        <time>2022-05-26T02:12:11Z</time>
      </trkpt>
      <trkpt lat="50.49518" lon="3.64612">
        <ele>42</ele>
        <time>2022-05-26T02:12:38Z</time>
      </trkpt>
      <trkpt lat="50.4945" lon="3.64784">
        <ele>38</ele>
        <time>2022-05-26T02:13:08Z</time>
      </trkpt>
      <trkpt lat="50.49433" lon="3.64842">
        <ele>37</ele>
        <time>2022-05-26T02:13:18Z</time>
      </trkpt>
      <trkpt lat="50.49424" lon="3.64897">
        <ele>38</ele>
        <time>2022-05-26T02:13:26Z</time>
      </trkpt>
      <trkpt lat="50.49279" lon="3.65382">
        <ele>34</ele>
        <time>2022-05-26T02:14:46Z</time>
      </trkpt>
      <trkpt lat="50.49136" lon="3.65822">
        <ele>28</ele>
        <time>2022-05-26T02:15:59Z</time>
      </trkpt>
      <trkpt lat="50.49095" lon="3.65902">
        <ele>30</ele>
        <time>2022-05-26T02:16:14Z</time>
      </trkpt>
      <trkpt lat="50.49053" lon="3.65969">
        <ele>31</ele>
        <time>2022-05-26T02:16:28Z</time>
      </trkpt>
      <trkpt lat="50.49077" lon="3.66033">
        <ele>32</ele>
        <time>2022-05-26T02:16:39Z</time>
      </trkpt>
      <trkpt lat="50.49074" lon="3.66067">
        <ele>33</ele>
        <time>2022-05-26T02:16:44Z</time>
      </trkpt>
      <trkpt lat="50.49024" lon="3.66226">
        <ele>35</ele>
        <time>2022-05-26T02:17:11Z</time>
      </trkpt>
      <trkpt lat="50.48999" lon="3.66207">
        <ele>35</ele>
        <time>2022-05-26T02:17:17Z</time>
      </trkpt>
      <trkpt lat="50.48974" lon="3.66165">
        <ele>34</ele>
        <time>2022-05-26T02:17:26Z</time>
      </trkpt>
      <trkpt lat="50.48969" lon="3.66129">
        <ele>35</ele>
        <time>2022-05-26T02:17:31Z</time>
      </trkpt>
      <trkpt lat="50.48966" lon="3.66124">
        <ele>35</ele>
        <time>2022-05-26T02:17:32Z</time>
      </trkpt>
      <trkpt lat="50.48879" lon="3.66219">
        <ele>31</ele>
        <time>2022-05-26T02:17:57Z</time>
      </trkpt>
      <trkpt lat="50.48772" lon="3.66341">
        <ele>30</ele>
        <time>2022-05-26T02:18:28Z</time>
      </trkpt>
      <trkpt lat="50.48766" lon="3.66342">
        <ele>30</ele>
        <time>2022-05-26T02:18:29Z</time>
      </trkpt>
      <trkpt lat="50.48742" lon="3.66365">
        <ele>30</ele>
        <time>2022-05-26T02:18:36Z</time>
      </trkpt>
      <trkpt lat="50.48726" lon="3.66396">
        <ele>30</ele>
        <time>2022-05-26T02:18:42Z</time>
      </trkpt>
      <trkpt lat="50.48483" lon="3.66678">
        <ele>30</ele>
        <time>2022-05-26T02:19:52Z</time>
      </trkpt>
      <trkpt lat="50.48463" lon="3.66692">
        <ele>30</ele>
        <time>2022-05-26T02:19:57Z</time>
      </trkpt>
      <trkpt lat="50.48428" lon="3.6674">
        <ele>29</ele>
        <time>2022-05-26T02:20:08Z</time>
      </trkpt>
      <trkpt lat="50.48258" lon="3.66943">
        <ele>24</ele>
        <time>2022-05-26T02:20:58Z</time>
      </trkpt>
      <trkpt lat="50.48196" lon="3.67012">
        <ele>26</ele>
        <time>2022-05-26T02:21:16Z</time>
      </trkpt>
      <trkpt lat="50.48173" lon="3.67021">
        <ele>26</ele>
        <time>2022-05-26T02:21:21Z</time>
      </trkpt>
      <trkpt lat="50.48161" lon="3.67035">
        <ele>26</ele>
        <time>2022-05-26T02:21:25Z</time>
      </trkpt>
      <trkpt lat="50.48137" lon="3.67078">
        <ele>27</ele>
        <time>2022-05-26T02:21:33Z</time>
      </trkpt>
      <trkpt lat="50.48116" lon="3.67104">
        <ele>27</ele>
        <time>2022-05-26T02:21:40Z</time>
      </trkpt>
      <trkpt lat="50.4797" lon="3.67273">
        <ele>23</ele>
        <time>2022-05-26T02:22:22Z</time>
      </trkpt>
      <trkpt lat="50.47893" lon="3.67357">
        <ele>23</ele>
        <time>2022-05-26T02:22:44Z</time>
      </trkpt>
      <trkpt lat="50.47884" lon="3.67358">
        <ele>22</ele>
        <time>2022-05-26T02:22:46Z</time>
      </trkpt>
      <trkpt lat="50.47872" lon="3.67368">
        <ele>22</ele>
        <time>2022-05-26T02:22:49Z</time>
      </trkpt>
      <trkpt lat="50.47849" lon="3.67406">
        <ele>22</ele>
        <time>2022-05-26T02:22:57Z</time>
      </trkpt>
      <trkpt lat="50.47706" lon="3.67578">
        <ele>20</ele>
        <time>2022-05-26T02:23:39Z</time>
      </trkpt>
      <trkpt lat="50.47697" lon="3.67583">
        <ele>20</ele>
        <time>2022-05-26T02:23:41Z</time>
      </trkpt>
      <trkpt lat="50.47684" lon="3.67601">
        <ele>20</ele>
        <time>2022-05-26T02:23:45Z</time>
      </trkpt>
      <trkpt lat="50.47471" lon="3.67847">
        <ele>24</ele>
        <time>2022-05-26T02:24:47Z</time>
      </trkpt>
      <trkpt lat="50.47354" lon="3.67977">
        <ele>24</ele>
        <time>2022-05-26T02:25:20Z</time>
      </trkpt>
      <trkpt lat="50.47338" lon="3.68019">
        <ele>24</ele>
        <time>2022-05-26T02:25:28Z</time>
      </trkpt>
      <trkpt lat="50.47313" lon="3.68143">
        <ele>27</ele>
        <time>2022-05-26T02:25:47Z</time>
      </trkpt>
      <trkpt lat="50.47317" lon="3.6822">
        <ele>27</ele>
        <time>2022-05-26T02:25:59Z</time>
      </trkpt>
      <trkpt lat="50.47362" lon="3.68347">
        <ele>24</ele>
        <time>2022-05-26T02:26:20Z</time>
      </trkpt>
      <trkpt lat="50.47386" lon="3.68402">
        <ele>25</ele>
        <time>2022-05-26T02:26:30Z</time>
      </trkpt>
      <trkpt lat="50.47402" lon="3.68416">
        <ele>26</ele>
        <time>2022-05-26T02:26:34Z</time>
      </trkpt>
      <trkpt lat="50.47419" lon="3.68422">
        <ele>26</ele>
        <time>2022-05-26T02:26:38Z</time>
      </trkpt>
      <trkpt lat="50.47425" lon="3.68441">
        <ele>26</ele>
        <time>2022-05-26T02:26:42Z</time>
      </trkpt>
      <trkpt lat="50.47441" lon="3.68459">
        <ele>25</ele>
        <time>2022-05-26T02:26:46Z</time>
      </trkpt>
      <trkpt lat="50.47462" lon="3.68457">
        <ele>24</ele>
        <time>2022-05-26T02:26:51Z</time>
      </trkpt>
      <trkpt lat="50.47472" lon="3.68462">
        <ele>24</ele>
        <time>2022-05-26T02:26:54Z</time>
      </trkpt>
      <trkpt lat="50.47431" lon="3.68494">
        <ele>27</ele>
        <time>2022-05-26T02:27:04Z</time>
      </trkpt>
      <trkpt lat="50.47365" lon="3.68555">
        <ele>26</ele>
        <time>2022-05-26T02:27:22Z</time>
      </trkpt>
      <trkpt lat="50.47324" lon="3.68601">
        <ele>24</ele>
        <time>2022-05-26T02:27:34Z</time>
      </trkpt>
      <trkpt lat="50.47301" lon="3.68672">
        <ele>23</ele>
        <time>2022-05-26T02:27:46Z</time>
      </trkpt>
      <trkpt lat="50.47256" lon="3.689">
        <ele>18</ele>
        <time>2022-05-26T02:28:21Z</time>
      </trkpt>
      <trkpt lat="50.47341" lon="3.68959">
        <ele>19</ele>
        <time>2022-05-26T02:28:43Z</time>
      </trkpt>
      <trkpt lat="50.47373" lon="3.68984">
        <ele>20</ele>
        <time>2022-05-26T02:28:51Z</time>
      </trkpt>
      <trkpt lat="50.47416" lon="3.69021">
        <ele>22</ele>
        <time>2022-05-26T02:29:03Z</time>
      </trkpt>
      <trkpt lat="50.47497" lon="3.69098">
        <ele>22</ele>
        <time>2022-05-26T02:29:25Z</time>
      </trkpt>
      <trkpt lat="50.4752" lon="3.69174">
        <ele>22</ele>
        <time>2022-05-26T02:29:37Z</time>
      </trkpt>
      <trkpt lat="50.47537" lon="3.6919">
        <ele>22</ele>
        <time>2022-05-26T02:29:42Z</time>
      </trkpt>
      <trkpt lat="50.47552" lon="3.6919">
        <ele>22</ele>
        <time>2022-05-26T02:29:45Z</time>
      </trkpt>
      <trkpt lat="50.47564" lon="3.6917">
        <ele>21</ele>
        <time>2022-05-26T02:29:50Z</time>
      </trkpt>
      <trkpt lat="50.47572" lon="3.69181">
        <ele>21</ele>
        <time>2022-05-26T02:29:52Z</time>
      </trkpt>
      <trkpt lat="50.47583" lon="3.69204">
        <ele>21</ele>
        <time>2022-05-26T02:29:56Z</time>
      </trkpt>
      <trkpt lat="50.47589" lon="3.69237">
        <ele>22</ele>
        <time>2022-05-26T02:30:01Z</time>
      </trkpt>
      <trkpt lat="50.47609" lon="3.69309">
        <ele>23</ele>
        <time>2022-05-26T02:30:13Z</time>
      </trkpt>
      <trkpt lat="50.47614" lon="3.69342">
        <ele>23</ele>
        <time>2022-05-26T02:30:18Z</time>
      </trkpt>
      <trkpt lat="50.47618" lon="3.69405">
        <ele>24</ele>
        <time>2022-05-26T02:30:27Z</time>
      </trkpt>
      <trkpt lat="50.47707" lon="3.69406">
        <ele>25</ele>
        <time>2022-05-26T02:30:48Z</time>
      </trkpt>
      <trkpt lat="50.47824" lon="3.69372">
        <ele>26</ele>
        <time>2022-05-26T02:31:16Z</time>
      </trkpt>
      <trkpt lat="50.47828" lon="3.69452">
        <ele>26</ele>
        <time>2022-05-26T02:31:28Z</time>
      </trkpt>
      <trkpt lat="50.47831" lon="3.6946">
        <ele>26</ele>
        <time>2022-05-26T02:31:29Z</time>
      </trkpt>
      <trkpt lat="50.47859" lon="3.69473">
        <ele>26</ele>
        <time>2022-05-26T02:31:36Z</time>
      </trkpt>
      <trkpt lat="50.47891" lon="3.69503">
        <ele>26</ele>
        <time>2022-05-26T02:31:45Z</time>
      </trkpt>
      <trkpt lat="50.47926" lon="3.6957">
        <ele>28</ele>
        <time>2022-05-26T02:31:58Z</time>
      </trkpt>
      <trkpt lat="50.47969" lon="3.69623">
        <ele>29</ele>
        <time>2022-05-26T02:32:11Z</time>
      </trkpt>
      <trkpt lat="50.47979" lon="3.69601">
        <ele>30</ele>
        <time>2022-05-26T02:32:15Z</time>
      </trkpt>
      <trkpt lat="50.48009" lon="3.69667">
        <ele>30</ele>
        <time>2022-05-26T02:32:27Z</time>
      </trkpt>
      <trkpt lat="50.48022" lon="3.69703">
        <ele>30</ele>
        <time>2022-05-26T02:32:33Z</time>
      </trkpt>
      <trkpt lat="50.48024" lon="3.69727">
        <ele>29</ele>
        <time>2022-05-26T02:32:36Z</time>
      </trkpt>
      <trkpt lat="50.48012" lon="3.69801">
        <ele>27</ele>
        <time>2022-05-26T02:32:48Z</time>
      </trkpt>
      <trkpt lat="50.47996" lon="3.69961">
        <ele>27</ele>
        <time>2022-05-26T02:33:12Z</time>
      </trkpt>
      <trkpt lat="50.48002" lon="3.70026">
        <ele>28</ele>
        <time>2022-05-26T02:33:22Z</time>
      </trkpt>
      <trkpt lat="50.48011" lon="3.7008">
        <ele>30</ele>
        <time>2022-05-26T02:33:30Z</time>
      </trkpt>
      <trkpt lat="50.48025" lon="3.70143">
        <ele>30</ele>
        <time>2022-05-26T02:33:40Z</time>
      </trkpt>
      <trkpt lat="50.47935" lon="3.70271">
        <ele>29</ele>
        <time>2022-05-26T02:34:08Z</time>
      </trkpt>
      <trkpt lat="50.4792" lon="3.70302">
        <ele>30</ele>
        <time>2022-05-26T02:34:14Z</time>
      </trkpt>
      <trkpt lat="50.47893" lon="3.70342">
        <ele>32</ele>
        <time>2022-05-26T02:34:23Z</time>
      </trkpt>
      <trkpt lat="50.47697" lon="3.70614">
        <ele>27</ele>
        <time>2022-05-26T02:35:24Z</time>
      </trkpt>
      <trkpt lat="50.4764" lon="3.70663">
        <ele>25</ele>
        <time>2022-05-26T02:35:39Z</time>
      </trkpt>
      <trkpt lat="50.47549" lon="3.70733">
        <ele>24</ele>
        <time>2022-05-26T02:36:02Z</time>
      </trkpt>
      <trkpt lat="50.47538" lon="3.70731">
        <ele>24</ele>
        <time>2022-05-26T02:36:05Z</time>
      </trkpt>
      <trkpt lat="50.47531" lon="3.70759">
        <ele>24</ele>
        <time>2022-05-26T02:36:10Z</time>
      </trkpt>
      <trkpt lat="50.4751" lon="3.70791">
        <ele>24</ele>
        <time>2022-05-26T02:36:16Z</time>
      </trkpt>
      <trkpt lat="50.47494" lon="3.7084">
        <ele>23</ele>
        <time>2022-05-26T02:36:25Z</time>
      </trkpt>
      <trkpt lat="50.47499" lon="3.7087">
        <ele>23</ele>
        <time>2022-05-26T02:36:29Z</time>
      </trkpt>
      <trkpt lat="50.47469" lon="3.70902">
        <ele>21</ele>
        <time>2022-05-26T02:36:38Z</time>
      </trkpt>
      <trkpt lat="50.47471" lon="3.70932">
        <ele>21</ele>
        <time>2022-05-26T02:36:42Z</time>
      </trkpt>
      <trkpt lat="50.47494" lon="3.70964">
        <ele>22</ele>
        <time>2022-05-26T02:36:49Z</time>
      </trkpt>
      <trkpt lat="50.47509" lon="3.70957">
        <ele>23</ele>
        <time>2022-05-26T02:36:53Z</time>
      </trkpt>
      <trkpt lat="50.4757" lon="3.70853">
        <ele>26</ele>
        <time>2022-05-26T02:37:14Z</time>
      </trkpt>
      <trkpt lat="50.47579" lon="3.70846">
        <ele>27</ele>
        <time>2022-05-26T02:37:16Z</time>
      </trkpt>
      <trkpt lat="50.4759" lon="3.70849">
        <ele>27</ele>
        <time>2022-05-26T02:37:19Z</time>
      </trkpt>
      <trkpt lat="50.47597" lon="3.70858">
        <ele>27</ele>
        <time>2022-05-26T02:37:21Z</time>
      </trkpt>
      <trkpt lat="50.47602" lon="3.70886">
        <ele>27</ele>
        <time>2022-05-26T02:37:25Z</time>
      </trkpt>
      <trkpt lat="50.47617" lon="3.70874">
        <ele>28</ele>
        <time>2022-05-26T02:37:29Z</time>
      </trkpt>
      <trkpt lat="50.47632" lon="3.7087">
        <ele>28</ele>
        <time>2022-05-26T02:37:33Z</time>
      </trkpt>
      <trkpt lat="50.47648" lon="3.70873">
        <ele>29</ele>
        <time>2022-05-26T02:37:37Z</time>
      </trkpt>
      <trkpt lat="50.47781" lon="3.71009">
        <ele>30</ele>
        <time>2022-05-26T02:38:14Z</time>
      </trkpt>
      <trkpt lat="50.47798" lon="3.71019">
        <ele>31</ele>
        <time>2022-05-26T02:38:18Z</time>
      </trkpt>
      <trkpt lat="50.47918" lon="3.70946">
        <ele>36</ele>
        <time>2022-05-26T02:38:48Z</time>
      </trkpt>
      <trkpt lat="50.47928" lon="3.70945">
        <ele>36</ele>
        <time>2022-05-26T02:38:50Z</time>
      </trkpt>
      <trkpt lat="50.47935" lon="3.70946">
        <ele>36</ele>
        <time>2022-05-26T02:38:52Z</time>
      </trkpt>
      <trkpt lat="50.47951" lon="3.70956">
        <ele>36</ele>
        <time>2022-05-26T02:38:56Z</time>
      </trkpt>
      <trkpt lat="50.48042" lon="3.71046">
        <ele>37</ele>
        <time>2022-05-26T02:39:21Z</time>
      </trkpt>
      <trkpt lat="50.48086" lon="3.70991">
        <ele>36</ele>
        <time>2022-05-26T02:39:34Z</time>
      </trkpt>
      <trkpt lat="50.48075" lon="3.70825">
        <ele>43</ele>
        <time>2022-05-26T02:39:59Z</time>
      </trkpt>
      <trkpt lat="50.48075" lon="3.70774">
        <ele>45</ele>
        <time>2022-05-26T02:40:07Z</time>
      </trkpt>
      <trkpt lat="50.48042" lon="3.70532">
        <ele>38</ele>
        <time>2022-05-26T02:40:43Z</time>
      </trkpt>
      <trkpt lat="50.48011" lon="3.70479">
        <ele>37</ele>
        <time>2022-05-26T02:40:54Z</time>
      </trkpt>
      <trkpt lat="50.4796" lon="3.70418">
        <ele>34</ele>
        <time>2022-05-26T02:41:09Z</time>
      </trkpt>
      <trkpt lat="50.47954" lon="3.70347">
        <ele>31</ele>
        <time>2022-05-26T02:41:20Z</time>
      </trkpt>
      <trkpt lat="50.47977" lon="3.703">
        <ele>30</ele>
        <time>2022-05-26T02:41:28Z</time>
      </trkpt>
      <trkpt lat="50.47981" lon="3.7031">
        <ele>30</ele>
        <time>2022-05-26T02:41:30Z</time>
      </trkpt>
      <trkpt lat="50.4799" lon="3.70313">
        <ele>29</ele>
        <time>2022-05-26T02:41:32Z</time>
      </trkpt>
      <trkpt lat="50.4802" lon="3.70292">
        <ele>29</ele>
        <time>2022-05-26T02:41:40Z</time>
      </trkpt>
      <trkpt lat="50.48109" lon="3.70341">
        <ele>29</ele>
        <time>2022-05-26T02:42:02Z</time>
      </trkpt>
      <trkpt lat="50.48158" lon="3.70394">
        <ele>30</ele>
        <time>2022-05-26T02:42:16Z</time>
      </trkpt>
      <trkpt lat="50.48339" lon="3.70604">
        <ele>35</ele>
        <time>2022-05-26T02:43:08Z</time>
      </trkpt>
      <trkpt lat="50.48461" lon="3.70289">
        <ele>37</ele>
        <time>2022-05-26T02:44:03Z</time>
      </trkpt>
      <trkpt lat="50.48484" lon="3.70239">
        <ele>37</ele>
        <time>2022-05-26T02:44:12Z</time>
      </trkpt>
      <trkpt lat="50.48523" lon="3.70118">
        <ele>39</ele>
        <time>2022-05-26T02:44:33Z</time>
      </trkpt>
      <trkpt lat="50.4852" lon="3.70094">
        <ele>40</ele>
        <time>2022-05-26T02:44:36Z</time>
      </trkpt>
      <trkpt lat="50.48526" lon="3.70067">
        <ele>40</ele>
        <time>2022-05-26T02:44:40Z</time>
      </trkpt>
      <trkpt lat="50.48607" lon="3.70135">
        <ele>40</ele>
        <time>2022-05-26T02:45:02Z</time>
      </trkpt>
      <trkpt lat="50.48508" lon="3.70401">
        <ele>42</ele>
        <time>2022-05-26T02:45:48Z</time>
      </trkpt>
      <trkpt lat="50.48474" lon="3.70475">
        <ele>41</ele>
        <time>2022-05-26T02:46:01Z</time>
      </trkpt>
      <trkpt lat="50.4846" lon="3.70511">
        <ele>40</ele>
        <time>2022-05-26T02:46:08Z</time>
      </trkpt>
      <trkpt lat="50.48461" lon="3.70541">
        <ele>40</ele>
        <time>2022-05-26T02:46:12Z</time>
      </trkpt>
      <trkpt lat="50.48468" lon="3.70593">
        <ele>40</ele>
        <time>2022-05-26T02:46:20Z</time>
      </trkpt>
      <trkpt lat="50.48452" lon="3.707">
        <ele>40</ele>
        <time>2022-05-26T02:46:36Z</time>
      </trkpt>
      <trkpt lat="50.4842" lon="3.7077">
        <ele>44</ele>
        <time>2022-05-26T02:46:49Z</time>
      </trkpt>
      <trkpt lat="50.48289" lon="3.71121">
        <ele>45</ele>
        <time>2022-05-26T02:47:49Z</time>
      </trkpt>
      <trkpt lat="50.48108" lon="3.71588">
        <ele>47</ele>
        <time>2022-05-26T02:49:11Z</time>
      </trkpt>
      <trkpt lat="50.48051" lon="3.71746">
        <ele>46</ele>
        <time>2022-05-26T02:49:38Z</time>
      </trkpt>
      <trkpt lat="50.48027" lon="3.71839">
        <ele>41</ele>
        <time>2022-05-26T02:49:53Z</time>
      </trkpt>
      <trkpt lat="50.48023" lon="3.7188">
        <ele>39</ele>
        <time>2022-05-26T02:49:59Z</time>
      </trkpt>
      <trkpt lat="50.48026" lon="3.7189">
        <ele>39</ele>
        <time>2022-05-26T02:50:00Z</time>
      </trkpt>
      <trkpt lat="50.48025" lon="3.72071">
        <ele>39</ele>
        <time>2022-05-26T02:50:27Z</time>
      </trkpt>
      <trkpt lat="50.4802" lon="3.72578">
        <ele>50</ele>
        <time>2022-05-26T02:51:43Z</time>
      </trkpt>
      <trkpt lat="50.48015" lon="3.72742">
        <ele>52</ele>
        <time>2022-05-26T02:52:07Z</time>
      </trkpt>
      <trkpt lat="50.48164" lon="3.72761">
        <ele>55</ele>
        <time>2022-05-26T02:52:42Z</time>
      </trkpt>
      <trkpt lat="50.48226" lon="3.72772">
        <ele>61</ele>
        <time>2022-05-26T02:52:57Z</time>
      </trkpt>
      <trkpt lat="50.48426" lon="3.728">
        <ele>68</ele>
        <time>2022-05-26T02:53:43Z</time>
      </trkpt>
      <trkpt lat="50.48838" lon="3.72863">
        <ele>70</ele>
        <time>2022-05-26T02:55:20Z</time>
      </trkpt>
      <trkpt lat="50.49017" lon="3.72893">
        <ele>70</ele>
        <time>2022-05-26T02:56:02Z</time>
      </trkpt>
      <trkpt lat="50.49567" lon="3.72976">
        <ele>75</ele>
        <time>2022-05-26T02:58:11Z</time>
      </trkpt>
      <trkpt lat="50.49571" lon="3.73028">
        <ele>75</ele>
        <time>2022-05-26T02:58:19Z</time>
      </trkpt>
      <trkpt lat="50.49607" lon="3.73111">
        <ele>77</ele>
        <time>2022-05-26T02:58:34Z</time>
      </trkpt>
      <trkpt lat="50.49655" lon="3.73178">
        <ele>82</ele>
        <time>2022-05-26T02:58:49Z</time>
      </trkpt>
      <trkpt lat="50.49698" lon="3.73263">
        <ele>85</ele>
        <time>2022-05-26T02:59:05Z</time>
      </trkpt>
      <trkpt lat="50.49805" lon="3.73436">
        <ele>89</ele>
        <time>2022-05-26T02:59:41Z</time>
      </trkpt>
      <trkpt lat="50.49606" lon="3.73655">
        <ele>85</ele>
        <time>2022-05-26T03:00:38Z</time>
      </trkpt>
      <trkpt lat="50.49474" lon="3.73817">
        <ele>80</ele>
        <time>2022-05-26T03:01:17Z</time>
      </trkpt>
      <trkpt lat="50.49405" lon="3.73898">
        <ele>79</ele>
        <time>2022-05-26T03:01:37Z</time>
      </trkpt>
      <trkpt lat="50.49135" lon="3.74204">
        <ele>71</ele>
        <time>2022-05-26T03:02:55Z</time>
      </trkpt>
      <trkpt lat="50.48917" lon="3.74468">
        <ele>70</ele>
        <time>2022-05-26T03:03:59Z</time>
      </trkpt>
      <trkpt lat="50.48905" lon="3.74483">
        <ele>69</ele>
        <time>2022-05-26T03:04:02Z</time>
      </trkpt>
      <trkpt lat="50.48901" lon="3.74505">
        <ele>67</ele>
        <time>2022-05-26T03:04:06Z</time>
      </trkpt>
      <trkpt lat="50.48865" lon="3.7456">
        <ele>66</ele>
        <time>2022-05-26T03:04:18Z</time>
      </trkpt>
      <trkpt lat="50.48862" lon="3.74583">
        <ele>65</ele>
        <time>2022-05-26T03:04:21Z</time>
      </trkpt>
      <trkpt lat="50.48856" lon="3.746">
        <ele>65</ele>
        <time>2022-05-26T03:04:24Z</time>
      </trkpt>
      <trkpt lat="50.48849" lon="3.74605">
        <ele>65</ele>
        <time>2022-05-26T03:04:26Z</time>
      </trkpt>
      <trkpt lat="50.48853" lon="3.74615">
        <ele>64</ele>
        <time>2022-05-26T03:04:27Z</time>
      </trkpt>
      <trkpt lat="50.4885" lon="3.74625">
        <ele>64</ele>
        <time>2022-05-26T03:04:29Z</time>
      </trkpt>
      <trkpt lat="50.48845" lon="3.74621">
        <ele>65</ele>
        <time>2022-05-26T03:04:30Z</time>
      </trkpt>
      <trkpt lat="50.48841" lon="3.74628">
        <ele>65</ele>
        <time>2022-05-26T03:04:32Z</time>
      </trkpt>
      <trkpt lat="50.48823" lon="3.74638">
        <ele>66</ele>
        <time>2022-05-26T03:04:36Z</time>
      </trkpt>
      <trkpt lat="50.48777" lon="3.74636">
        <ele>69</ele>
        <time>2022-05-26T03:04:47Z</time>
      </trkpt>
      <trkpt lat="50.48627" lon="3.74818">
        <ele>55</ele>
        <time>2022-05-26T03:05:31Z</time>
      </trkpt>
      <trkpt lat="50.48883" lon="3.74965">
        <ele>69</ele>
        <time>2022-05-26T03:06:35Z</time>
      </trkpt>
      <trkpt lat="50.48849" lon="3.74999">
        <ele>69</ele>
        <time>2022-05-26T03:06:44Z</time>
      </trkpt>
      <trkpt lat="50.48834" lon="3.75043">
        <ele>67</ele>
        <time>2022-05-26T03:06:52Z</time>
      </trkpt>
      <trkpt lat="50.4883" lon="3.75105">
        <ele>66</ele>
        <time>2022-05-26T03:07:01Z</time>
      </trkpt>
      <trkpt lat="50.48831" lon="3.75155">
        <ele>65</ele>
        <time>2022-05-26T03:07:08Z</time>
      </trkpt>
      <trkpt lat="50.48828" lon="3.75209">
        <ele>67</ele>
        <time>2022-05-26T03:07:17Z</time>
      </trkpt>
      <trkpt lat="50.48819" lon="3.75259">
        <ele>69</ele>
        <time>2022-05-26T03:07:24Z</time>
      </trkpt>
      <trkpt lat="50.48827" lon="3.75304">
        <ele>71</ele>
        <time>2022-05-26T03:07:31Z</time>
      </trkpt>
      <trkpt lat="50.4882" lon="3.75332">
        <ele>72</ele>
        <time>2022-05-26T03:07:36Z</time>
      </trkpt>
      <trkpt lat="50.48784" lon="3.75373">
        <ele>70</ele>
        <time>2022-05-26T03:07:46Z</time>
      </trkpt>
      <trkpt lat="50.48761" lon="3.75404">
        <ele>69</ele>
        <time>2022-05-26T03:07:53Z</time>
      </trkpt>
      <trkpt lat="50.48752" lon="3.75467">
        <ele>68</ele>
        <time>2022-05-26T03:08:03Z</time>
      </trkpt>
      <trkpt lat="50.4868" lon="3.75835">
        <ele>54</ele>
        <time>2022-05-26T03:09:00Z</time>
      </trkpt>
      <trkpt lat="50.48655" lon="3.7594">
        <ele>52</ele>
        <time>2022-05-26T03:09:17Z</time>
      </trkpt>
      <trkpt lat="50.48625" lon="3.76115">
        <ele>48</ele>
        <time>2022-05-26T03:09:43Z</time>
      </trkpt>
      <trkpt lat="50.48594" lon="3.76324">
        <ele>42</ele>
        <time>2022-05-26T03:10:15Z</time>
      </trkpt>
      <trkpt lat="50.48561" lon="3.76351">
        <ele>42</ele>
        <time>2022-05-26T03:10:24Z</time>
      </trkpt>
      <trkpt lat="50.48537" lon="3.76478">
        <ele>40</ele>
        <time>2022-05-26T03:10:44Z</time>
      </trkpt>
      <trkpt lat="50.48437" lon="3.76406">
        <ele>37</ele>
        <time>2022-05-26T03:11:09Z</time>
      </trkpt>
      <trkpt lat="50.4837" lon="3.76381">
        <ele>39</ele>
        <time>2022-05-26T03:11:26Z</time>
      </trkpt>
      <trkpt lat="50.48307" lon="3.76361">
        <ele>39</ele>
        <time>2022-05-26T03:11:41Z</time>
      </trkpt>
      <trkpt lat="50.48273" lon="3.76359">
        <ele>39</ele>
        <time>2022-05-26T03:11:48Z</time>
      </trkpt>
      <trkpt lat="50.48246" lon="3.7644">
        <ele>39</ele>
        <time>2022-05-26T03:12:02Z</time>
      </trkpt>
      <trkpt lat="50.48295" lon="3.76475">
        <ele>41</ele>
        <time>2022-05-26T03:12:15Z</time>
      </trkpt>
      <trkpt lat="50.48357" lon="3.76549">
        <ele>43</ele>
        <time>2022-05-26T03:12:33Z</time>
      </trkpt>
      <trkpt lat="50.48411" lon="3.76664">
        <ele>49</ele>
        <time>2022-05-26T03:12:54Z</time>
      </trkpt>
      <trkpt lat="50.48493" lon="3.76873">
        <ele>59</ele>
        <time>2022-05-26T03:13:31Z</time>
      </trkpt>
      <trkpt lat="50.48643" lon="3.7701">
        <ele>49</ele>
        <time>2022-05-26T03:14:11Z</time>
      </trkpt>
      <trkpt lat="50.48765" lon="3.77192">
        <ele>46</ele>
        <time>2022-05-26T03:14:50Z</time>
      </trkpt>
      <trkpt lat="50.48791" lon="3.77223">
        <ele>46</ele>
        <time>2022-05-26T03:14:58Z</time>
      </trkpt>
      <trkpt lat="50.48931" lon="3.77323">
        <ele>49</ele>
        <time>2022-05-26T03:15:34Z</time>
      </trkpt>
      <trkpt lat="50.4896" lon="3.77337">
        <ele>51</ele>
        <time>2022-05-26T03:15:41Z</time>
      </trkpt>
      <trkpt lat="50.49054" lon="3.77405">
        <ele>57</ele>
        <time>2022-05-26T03:16:05Z</time>
      </trkpt>
      <trkpt lat="50.49043" lon="3.77155">
        <ele>57</ele>
        <time>2022-05-26T03:16:42Z</time>
      </trkpt>
      <trkpt lat="50.49033" lon="3.77035">
        <ele>55</ele>
        <time>2022-05-26T03:17:00Z</time>
      </trkpt>
      <trkpt lat="50.49129" lon="3.77143">
        <ele>63</ele>
        <time>2022-05-26T03:17:28Z</time>
      </trkpt>
      <trkpt lat="50.4919" lon="3.77178">
        <ele>65</ele>
        <time>2022-05-26T03:17:43Z</time>
      </trkpt>
      <trkpt lat="50.49242" lon="3.77215">
        <ele>72</ele>
        <time>2022-05-26T03:17:56Z</time>
      </trkpt>
      <trkpt lat="50.49285" lon="3.77211">
        <ele>72</ele>
        <time>2022-05-26T03:18:06Z</time>
      </trkpt>
      <trkpt lat="50.49314" lon="3.77215">
        <ele>71</ele>
        <time>2022-05-26T03:18:13Z</time>
      </trkpt>
      <trkpt lat="50.49333" lon="3.77164">
        <ele>73</ele>
        <time>2022-05-26T03:18:22Z</time>
      </trkpt>
      <trkpt lat="50.49366" lon="3.77157">
        <ele>72</ele>
        <time>2022-05-26T03:18:30Z</time>
      </trkpt>
      <trkpt lat="50.4938" lon="3.77055">
        <ele>68</ele>
        <time>2022-05-26T03:18:45Z</time>
      </trkpt>
      <trkpt lat="50.49437" lon="3.76991">
        <ele>63</ele>
        <time>2022-05-26T03:19:02Z</time>
      </trkpt>
      <trkpt lat="50.49448" lon="3.76927">
        <ele>56</ele>
        <time>2022-05-26T03:19:12Z</time>
      </trkpt>
      <trkpt lat="50.49488" lon="3.76906">
        <ele>57</ele>
        <time>2022-05-26T03:19:21Z</time>
      </trkpt>
      <trkpt lat="50.49511" lon="3.76878">
        <ele>58</ele>
        <time>2022-05-26T03:19:28Z</time>
      </trkpt>
      <trkpt lat="50.49511" lon="3.76853">
        <ele>59</ele>
        <time>2022-05-26T03:19:32Z</time>
      </trkpt>
      <trkpt lat="50.49481" lon="3.76778">
        <ele>60</ele>
        <time>2022-05-26T03:19:45Z</time>
      </trkpt>
      <trkpt lat="50.49524" lon="3.76762">
        <ele>65</ele>
        <time>2022-05-26T03:19:55Z</time>
      </trkpt>
      <trkpt lat="50.49557" lon="3.7676">
        <ele>68</ele>
        <time>2022-05-26T03:20:03Z</time>
      </trkpt>
      <trkpt lat="50.4959" lon="3.76791">
        <ele>68</ele>
        <time>2022-05-26T03:20:12Z</time>
      </trkpt>
      <trkpt lat="50.49618" lon="3.76826">
        <ele>66</ele>
        <time>2022-05-26T03:20:20Z</time>
      </trkpt>
      <trkpt lat="50.49624" lon="3.76524">
        <ele>66</ele>
        <time>2022-05-26T03:21:05Z</time>
      </trkpt>
      <trkpt lat="50.49624" lon="3.7623">
        <ele>67</ele>
        <time>2022-05-26T03:21:49Z</time>
      </trkpt>
      <trkpt lat="50.49619" lon="3.75896">
        <ele>68</ele>
        <time>2022-05-26T03:22:39Z</time>
      </trkpt>
      <trkpt lat="50.4962" lon="3.75362">
        <ele>72</ele>
        <time>2022-05-26T03:23:58Z</time>
      </trkpt>
      <trkpt lat="50.49618" lon="3.75289">
        <ele>72</ele>
        <time>2022-05-26T03:24:09Z</time>
      </trkpt>
      <trkpt lat="50.49649" lon="3.75289">
        <ele>73</ele>
        <time>2022-05-26T03:24:16Z</time>
      </trkpt>
      <trkpt lat="50.49681" lon="3.75298">
        <ele>75</ele>
        <time>2022-05-26T03:24:24Z</time>
      </trkpt>
      <trkpt lat="50.49927" lon="3.74969">
        <ele>90</ele>
        <time>2022-05-26T03:25:39Z</time>
      </trkpt>
      <trkpt lat="50.49892" lon="3.74853">
        <ele>89</ele>
        <time>2022-05-26T03:25:58Z</time>
      </trkpt>
      <trkpt lat="50.49878" lon="3.74699">
        <ele>85</ele>
        <time>2022-05-26T03:26:21Z</time>
      </trkpt>
      <trkpt lat="50.49856" lon="3.74644">
        <ele>83</ele>
        <time>2022-05-26T03:26:31Z</time>
      </trkpt>
      <trkpt lat="50.49844" lon="3.74583">
        <ele>88</ele>
        <time>2022-05-26T03:26:40Z</time>
      </trkpt>
      <trkpt lat="50.4984" lon="3.74467">
        <ele>87</ele>
        <time>2022-05-26T03:26:58Z</time>
      </trkpt>
      <trkpt lat="50.49799" lon="3.74288">
        <ele>86</ele>
        <time>2022-05-26T03:27:26Z</time>
      </trkpt>
      <trkpt lat="50.49795" lon="3.7422">
        <ele>87</ele>
        <time>2022-05-26T03:27:36Z</time>
      </trkpt>
      <trkpt lat="50.49812" lon="3.74155">
        <ele>89</ele>
        <time>2022-05-26T03:27:46Z</time>
      </trkpt>
      <trkpt lat="50.49814" lon="3.7404">
        <ele>89</ele>
        <time>2022-05-26T03:28:04Z</time>
      </trkpt>
      <trkpt lat="50.49799" lon="3.7401">
        <ele>88</ele>
        <time>2022-05-26T03:28:09Z</time>
      </trkpt>
      <trkpt lat="50.49931" lon="3.74096">
        <ele>91</ele>
        <time>2022-05-26T03:28:43Z</time>
      </trkpt>
      <trkpt lat="50.49958" lon="3.74089">
        <ele>91</ele>
        <time>2022-05-26T03:28:49Z</time>
      </trkpt>
      <trkpt lat="50.50015" lon="3.74088">
        <ele>91</ele>
        <time>2022-05-26T03:29:02Z</time>
      </trkpt>
      <trkpt lat="50.50048" lon="3.74114">
        <ele>91</ele>
        <time>2022-05-26T03:29:11Z</time>
      </trkpt>
      <trkpt lat="50.50059" lon="3.7413">
        <ele>90</ele>
        <time>2022-05-26T03:29:14Z</time>
      </trkpt>
      <trkpt lat="50.50086" lon="3.74146">
        <ele>91</ele>
        <time>2022-05-26T03:29:21Z</time>
      </trkpt>
      <trkpt lat="50.50166" lon="3.7424">
        <ele>92</ele>
        <time>2022-05-26T03:29:44Z</time>
      </trkpt>
      <trkpt lat="50.50185" lon="3.7428">
        <ele>92</ele>
        <time>2022-05-26T03:29:52Z</time>
      </trkpt>
      <trkpt lat="50.50231" lon="3.74307">
        <ele>93</ele>
        <time>2022-05-26T03:30:03Z</time>
      </trkpt>
      <trkpt lat="50.50285" lon="3.7436">
        <ele>95</ele>
        <time>2022-05-26T03:30:18Z</time>
      </trkpt>
      <trkpt lat="50.50379" lon="3.74442">
        <ele>97</ele>
        <time>2022-05-26T03:30:43Z</time>
      </trkpt>
      <trkpt lat="50.50415" lon="3.74485">
        <ele>98</ele>
        <time>2022-05-26T03:30:54Z</time>
      </trkpt>
      <trkpt lat="50.5042" lon="3.74501">
        <ele>98</ele>
        <time>2022-05-26T03:30:57Z</time>
      </trkpt>
      <trkpt lat="50.50435" lon="3.74495">
        <ele>98</ele>
        <time>2022-05-26T03:31:00Z</time>
      </trkpt>
      <trkpt lat="50.50443" lon="3.74479">
        <ele>97</ele>
        <time>2022-05-26T03:31:03Z</time>
      </trkpt>
      <trkpt lat="50.50459" lon="3.74461">
        <ele>97</ele>
        <time>2022-05-26T03:31:08Z</time>
      </trkpt>
      <trkpt lat="50.50515" lon="3.74464">
        <ele>97</ele>
        <time>2022-05-26T03:31:21Z</time>
      </trkpt>
      <trkpt lat="50.50542" lon="3.7444">
        <ele>96</ele>
        <time>2022-05-26T03:31:28Z</time>
      </trkpt>
      <trkpt lat="50.50676" lon="3.74352">
        <ele>93</ele>
        <time>2022-05-26T03:32:02Z</time>
      </trkpt>
      <trkpt lat="50.5076" lon="3.74278">
        <ele>90</ele>
        <time>2022-05-26T03:32:24Z</time>
      </trkpt>
      <trkpt lat="50.50824" lon="3.74227">
        <ele>89</ele>
        <time>2022-05-26T03:32:41Z</time>
      </trkpt>
      <trkpt lat="50.50739" lon="3.73845">
        <ele>90</ele>
        <time>2022-05-26T03:33:41Z</time>
      </trkpt>
      <trkpt lat="50.50785" lon="3.73714">
        <ele>90</ele>
        <time>2022-05-26T03:34:04Z</time>
      </trkpt>
      <trkpt lat="50.5084" lon="3.73591">
        <ele>89</ele>
        <time>2022-05-26T03:34:26Z</time>
      </trkpt>
      <trkpt lat="50.50914" lon="3.73416">
        <ele>88</ele>
        <time>2022-05-26T03:34:57Z</time>
      </trkpt>
      <trkpt lat="50.51022" lon="3.73193">
        <ele>78</ele>
        <time>2022-05-26T03:35:39Z</time>
      </trkpt>
      <trkpt lat="50.51355" lon="3.7324">
        <ele>76</ele>
        <time>2022-05-26T03:36:57Z</time>
      </trkpt>
      <trkpt lat="50.51435" lon="3.73766">
        <ele>77</ele>
        <time>2022-05-26T03:38:17Z</time>
      </trkpt>
      <trkpt lat="50.51752" lon="3.73875">
        <ele>80</ele>
        <time>2022-05-26T03:39:33Z</time>
      </trkpt>
      <trkpt lat="50.51906" lon="3.73925">
        <ele>78</ele>
        <time>2022-05-26T03:40:10Z</time>
      </trkpt>
      <trkpt lat="50.52228" lon="3.73812">
        <ele>75</ele>
        <time>2022-05-26T03:41:27Z</time>
      </trkpt>
      <trkpt lat="50.52163" lon="3.74014">
        <ele>76</ele>
        <time>2022-05-26T03:42:00Z</time>
      </trkpt>
      <trkpt lat="50.52132" lon="3.74102">
        <ele>76</ele>
        <time>2022-05-26T03:42:15Z</time>
      </trkpt>
      <trkpt lat="50.52117" lon="3.74242">
        <ele>75</ele>
        <time>2022-05-26T03:42:36Z</time>
      </trkpt>
      <trkpt lat="50.52046" lon="3.74427">
        <ele>79</ele>
        <time>2022-05-26T03:43:08Z</time>
      </trkpt>
      <trkpt lat="50.51983" lon="3.74539">
        <ele>80</ele>
        <time>2022-05-26T03:43:31Z</time>
      </trkpt>
      <trkpt lat="50.51961" lon="3.74549">
        <ele>79</ele>
        <time>2022-05-26T03:43:36Z</time>
      </trkpt>
      <trkpt lat="50.52216" lon="3.74528">
        <ele>81</ele>
        <time>2022-05-26T03:44:36Z</time>
      </trkpt>
      <trkpt lat="50.52288" lon="3.74528">
        <ele>81</ele>
        <time>2022-05-26T03:44:52Z</time>
      </trkpt>
      <trkpt lat="50.52339" lon="3.74522">
        <ele>79</ele>
        <time>2022-05-26T03:45:04Z</time>
      </trkpt>
      <trkpt lat="50.5254" lon="3.74515">
        <ele>68</ele>
        <time>2022-05-26T03:45:51Z</time>
      </trkpt>
      <trkpt lat="50.5256" lon="3.74479">
        <ele>66</ele>
        <time>2022-05-26T03:45:58Z</time>
      </trkpt>
      <trkpt lat="50.52578" lon="3.74458">
        <ele>63</ele>
        <time>2022-05-26T03:46:04Z</time>
      </trkpt>
      <trkpt lat="50.52611" lon="3.74395">
        <ele>63</ele>
        <time>2022-05-26T03:46:16Z</time>
      </trkpt>
      <trkpt lat="50.52834" lon="3.73952">
        <ele>65</ele>
        <time>2022-05-26T03:47:40Z</time>
      </trkpt>
      <trkpt lat="50.52812" lon="3.73869">
        <ele>70</ele>
        <time>2022-05-26T03:47:53Z</time>
      </trkpt>
      <trkpt lat="50.52787" lon="3.73753">
        <ele>71</ele>
        <time>2022-05-26T03:48:11Z</time>
      </trkpt>
      <trkpt lat="50.52773" lon="3.73659">
        <ele>66</ele>
        <time>2022-05-26T03:48:25Z</time>
      </trkpt>
      <trkpt lat="50.52737" lon="3.73584">
        <ele>63</ele>
        <time>2022-05-26T03:48:39Z</time>
      </trkpt>
      <trkpt lat="50.52736" lon="3.73567">
        <ele>63</ele>
        <time>2022-05-26T03:48:42Z</time>
      </trkpt>
      <trkpt lat="50.52741" lon="3.73538">
        <ele>63</ele>
        <time>2022-05-26T03:48:46Z</time>
      </trkpt>
      <trkpt lat="50.52752" lon="3.73505">
        <ele>62</ele>
        <time>2022-05-26T03:48:52Z</time>
      </trkpt>
      <trkpt lat="50.52771" lon="3.73473">
        <ele>61</ele>
        <time>2022-05-26T03:48:58Z</time>
      </trkpt>
      <trkpt lat="50.5288" lon="3.73491">
        <ele>60</ele>
        <time>2022-05-26T03:49:24Z</time>
      </trkpt>
      <trkpt lat="50.52922" lon="3.73503">
        <ele>61</ele>
        <time>2022-05-26T03:49:34Z</time>
      </trkpt>
      <trkpt lat="50.5306" lon="3.73522">
        <ele>60</ele>
        <time>2022-05-26T03:50:06Z</time>
      </trkpt>
      <trkpt lat="50.53114" lon="3.73423">
        <ele>59</ele>
        <time>2022-05-26T03:50:26Z</time>
      </trkpt>
      <trkpt lat="50.53007" lon="3.73288">
        <ele>60</ele>
        <time>2022-05-26T03:50:58Z</time>
      </trkpt>
      <trkpt lat="50.52968" lon="3.73243">
        <ele>59</ele>
        <time>2022-05-26T03:51:09Z</time>
      </trkpt>
      <trkpt lat="50.52888" lon="3.73138">
        <ele>62</ele>
        <time>2022-05-26T03:51:33Z</time>
      </trkpt>
      <trkpt lat="50.52877" lon="3.7314">
        <ele>62</ele>
        <time>2022-05-26T03:51:36Z</time>
      </trkpt>
      <trkpt lat="50.52873" lon="3.73145">
        <ele>62</ele>
        <time>2022-05-26T03:51:37Z</time>
      </trkpt>
      <trkpt lat="50.52853" lon="3.73147">
        <ele>63</ele>
        <time>2022-05-26T03:51:42Z</time>
      </trkpt>
      <trkpt lat="50.52836" lon="3.73128">
        <ele>63</ele>
        <time>2022-05-26T03:51:47Z</time>
      </trkpt>
      <trkpt lat="50.52839" lon="3.73111">
        <ele>63</ele>
        <time>2022-05-26T03:51:49Z</time>
      </trkpt>
      <trkpt lat="50.52831" lon="3.73093">
        <ele>64</ele>
        <time>2022-05-26T03:51:53Z</time>
      </trkpt>
      <trkpt lat="50.52748" lon="3.73007">
        <ele>67</ele>
        <time>2022-05-26T03:52:16Z</time>
      </trkpt>
      <trkpt lat="50.52703" lon="3.72972">
        <ele>66</ele>
        <time>2022-05-26T03:52:28Z</time>
      </trkpt>
      <trkpt lat="50.52667" lon="3.72935">
        <ele>66</ele>
        <time>2022-05-26T03:52:38Z</time>
      </trkpt>
      <trkpt lat="50.52565" lon="3.72877">
        <ele>68</ele>
        <time>2022-05-26T03:53:03Z</time>
      </trkpt>
      <trkpt lat="50.52518" lon="3.72858">
        <ele>68</ele>
        <time>2022-05-26T03:53:14Z</time>
      </trkpt>
      <trkpt lat="50.52442" lon="3.72838">
        <ele>71</ele>
        <time>2022-05-26T03:53:32Z</time>
      </trkpt>
      <trkpt lat="50.52423" lon="3.72817">
        <ele>71</ele>
        <time>2022-05-26T03:53:38Z</time>
      </trkpt>
      <trkpt lat="50.52423" lon="3.728">
        <ele>70</ele>
        <time>2022-05-26T03:53:40Z</time>
      </trkpt>
      <trkpt lat="50.52394" lon="3.72784">
        <ele>70</ele>
        <time>2022-05-26T03:53:47Z</time>
      </trkpt>
      <trkpt lat="50.52257" lon="3.72738">
        <ele>70</ele>
        <time>2022-05-26T03:54:20Z</time>
      </trkpt>
      <trkpt lat="50.5218" lon="3.7272">
        <ele>75</ele>
        <time>2022-05-26T03:54:38Z</time>
      </trkpt>
      <trkpt lat="50.52144" lon="3.72714">
        <ele>76</ele>
        <time>2022-05-26T03:54:47Z</time>
      </trkpt>
      <trkpt lat="50.52097" lon="3.72686">
        <ele>74</ele>
        <time>2022-05-26T03:54:58Z</time>
      </trkpt>
      <trkpt lat="50.52062" lon="3.72689">
        <ele>74</ele>
        <time>2022-05-26T03:55:07Z</time>
      </trkpt>
      <trkpt lat="50.51984" lon="3.72653">
        <ele>70</ele>
        <time>2022-05-26T03:55:26Z</time>
      </trkpt>
      <trkpt lat="50.51968" lon="3.72638">
        <ele>69</ele>
        <time>2022-05-26T03:55:30Z</time>
      </trkpt>
      <trkpt lat="50.51934" lon="3.72618">
        <ele>69</ele>
        <time>2022-05-26T03:55:38Z</time>
      </trkpt>
      <trkpt lat="50.51908" lon="3.72614">
        <ele>69</ele>
        <time>2022-05-26T03:55:45Z</time>
      </trkpt>
      <trkpt lat="50.51857" lon="3.72595">
        <ele>71</ele>
        <time>2022-05-26T03:55:57Z</time>
      </trkpt>
      <trkpt lat="50.51837" lon="3.72598">
        <ele>72</ele>
        <time>2022-05-26T03:56:01Z</time>
      </trkpt>
      <trkpt lat="50.51784" lon="3.72567">
        <ele>73</ele>
        <time>2022-05-26T03:56:15Z</time>
      </trkpt>
      <trkpt lat="50.51713" lon="3.72545">
        <ele>73</ele>
        <time>2022-05-26T03:56:32Z</time>
      </trkpt>
      <trkpt lat="50.51642" lon="3.72533">
        <ele>73</ele>
        <time>2022-05-26T03:56:48Z</time>
      </trkpt>
      <trkpt lat="50.51526" lon="3.72553">
        <ele>72</ele>
        <time>2022-05-26T03:57:16Z</time>
      </trkpt>
      <trkpt lat="50.51527" lon="3.72569">
        <ele>73</ele>
        <time>2022-05-26T03:57:18Z</time>
      </trkpt>
      <trkpt lat="50.51434" lon="3.72584">
        <ele>68</ele>
        <time>2022-05-26T03:57:40Z</time>
      </trkpt>
      <trkpt lat="50.51365" lon="3.72588">
        <ele>67</ele>
        <time>2022-05-26T03:57:56Z</time>
      </trkpt>
      <trkpt lat="50.51285" lon="3.7261">
        <ele>66</ele>
        <time>2022-05-26T03:58:15Z</time>
      </trkpt>
      <trkpt lat="50.51235" lon="3.72708">
        <ele>69</ele>
        <time>2022-05-26T03:58:33Z</time>
      </trkpt>
      <trkpt lat="50.51152" lon="3.72615">
        <ele>66</ele>
        <time>2022-05-26T03:58:57Z</time>
      </trkpt>
      <trkpt lat="50.51059" lon="3.72606">
        <ele>67</ele>
        <time>2022-05-26T03:59:19Z</time>
      </trkpt>
      <trkpt lat="50.51014" lon="3.72598">
        <ele>66</ele>
        <time>2022-05-26T03:59:30Z</time>
      </trkpt>
      <trkpt lat="50.50952" lon="3.7271">
        <ele>72</ele>
        <time>2022-05-26T03:59:52Z</time>
      </trkpt>
      <trkpt lat="50.50913" lon="3.72774">
        <ele>72</ele>
        <time>2022-05-26T04:00:05Z</time>
      </trkpt>
      <trkpt lat="50.50875" lon="3.72777">
        <ele>75</ele>
        <time>2022-05-26T04:00:14Z</time>
      </trkpt>
      <trkpt lat="50.50781" lon="3.72658">
        <ele>73</ele>
        <time>2022-05-26T04:00:42Z</time>
      </trkpt>
      <trkpt lat="50.50768" lon="3.7266">
        <ele>73</ele>
        <time>2022-05-26T04:00:45Z</time>
      </trkpt>
      <trkpt lat="50.50902" lon="3.73175">
        <ele>82</ele>
        <time>2022-05-26T04:02:08Z</time>
      </trkpt>
      <trkpt lat="50.50619" lon="3.73136">
        <ele>85</ele>
        <time>2022-05-26T04:03:14Z</time>
      </trkpt>
      <trkpt lat="50.50135" lon="3.73064">
        <ele>84</ele>
        <time>2022-05-26T04:05:07Z</time>
      </trkpt>
      <trkpt lat="50.49922" lon="3.73028">
        <ele>82</ele>
        <time>2022-05-26T04:05:58Z</time>
      </trkpt>
      <trkpt lat="50.50048" lon="3.72847">
        <ele>78</ele>
        <time>2022-05-26T04:06:37Z</time>
      </trkpt>
      <trkpt lat="50.50235" lon="3.72587">
        <ele>87</ele>
        <time>2022-05-26T04:07:36Z</time>
      </trkpt>
      <trkpt lat="50.50192" lon="3.72447">
        <ele>87</ele>
        <time>2022-05-26T04:07:59Z</time>
      </trkpt>
      <trkpt lat="50.50165" lon="3.72319">
        <ele>86</ele>
        <time>2022-05-26T04:08:19Z</time>
      </trkpt>
      <trkpt lat="50.50226" lon="3.724">
        <ele>85</ele>
        <time>2022-05-26T04:08:37Z</time>
      </trkpt>
      <trkpt lat="50.50369" lon="3.7246">
        <ele>75</ele>
        <time>2022-05-26T04:09:12Z</time>
      </trkpt>
      <trkpt lat="50.50247" lon="3.72324">
        <ele>79</ele>
        <time>2022-05-26T04:09:47Z</time>
      </trkpt>
      <trkpt lat="50.50202" lon="3.72224">
        <ele>79</ele>
        <time>2022-05-26T04:10:05Z</time>
      </trkpt>
      <trkpt lat="50.50203" lon="3.7219">
        <ele>77</ele>
        <time>2022-05-26T04:10:10Z</time>
      </trkpt>
      <trkpt lat="50.50312" lon="3.72133">
        <ele>67</ele>
        <time>2022-05-26T04:10:37Z</time>
      </trkpt>
      <trkpt lat="50.5032" lon="3.72115">
        <ele>66</ele>
        <time>2022-05-26T04:10:40Z</time>
      </trkpt>
      <trkpt lat="50.50196" lon="3.71864">
        <ele>76</ele>
        <time>2022-05-26T04:11:27Z</time>
      </trkpt>
      <trkpt lat="50.50148" lon="3.71676">
        <ele>80</ele>
        <time>2022-05-26T04:11:58Z</time>
      </trkpt>
      <trkpt lat="50.50119" lon="3.71687">
        <ele>81</ele>
        <time>2022-05-26T04:12:05Z</time>
      </trkpt>
      <trkpt lat="50.5005" lon="3.71688">
        <ele>83</ele>
        <time>2022-05-26T04:12:21Z</time>
      </trkpt>
      <trkpt lat="50.49992" lon="3.71692">
        <ele>82</ele>
        <time>2022-05-26T04:12:34Z</time>
      </trkpt>
      <trkpt lat="50.49975" lon="3.71643">
        <ele>81</ele>
        <time>2022-05-26T04:12:42Z</time>
      </trkpt>
      <trkpt lat="50.49928" lon="3.71648">
        <ele>81</ele>
        <time>2022-05-26T04:12:53Z</time>
      </trkpt>
      <trkpt lat="50.49884" lon="3.71689">
        <ele>79</ele>
        <time>2022-05-26T04:13:05Z</time>
      </trkpt>
      <trkpt lat="50.49862" lon="3.71731">
        <ele>80</ele>
        <time>2022-05-26T04:13:14Z</time>
      </trkpt>
      <trkpt lat="50.49886" lon="3.71736">
        <ele>81</ele>
        <time>2022-05-26T04:13:19Z</time>
      </trkpt>
      <trkpt lat="50.49885" lon="3.71821">
        <ele>81</ele>
        <time>2022-05-26T04:13:32Z</time>
      </trkpt>
      <trkpt lat="50.49893" lon="3.7184">
        <ele>81</ele>
        <time>2022-05-26T04:13:35Z</time>
      </trkpt>
      <trkpt lat="50.49898" lon="3.71865">
        <ele>82</ele>
        <time>2022-05-26T04:13:39Z</time>
      </trkpt>
      <trkpt lat="50.49892" lon="3.7189">
        <ele>83</ele>
        <time>2022-05-26T04:13:43Z</time>
      </trkpt>
      <trkpt lat="50.49903" lon="3.71908">
        <ele>83</ele>
        <time>2022-05-26T04:13:47Z</time>
      </trkpt>
      <trkpt lat="50.49877" lon="3.71907">
        <ele>83</ele>
        <time>2022-05-26T04:13:53Z</time>
      </trkpt>
      <trkpt lat="50.49873" lon="3.71946">
        <ele>84</ele>
        <time>2022-05-26T04:13:59Z</time>
      </trkpt>
      <trkpt lat="50.49877" lon="3.71984">
        <ele>84</ele>
        <time>2022-05-26T04:14:04Z</time>
      </trkpt>
      <trkpt lat="50.49887" lon="3.71988">
        <ele>84</ele>
        <time>2022-05-26T04:14:07Z</time>
      </trkpt>
      <trkpt lat="50.49883" lon="3.7204">
        <ele>84</ele>
        <time>2022-05-26T04:14:15Z</time>
      </trkpt>
      <trkpt lat="50.49887" lon="3.7207">
        <ele>83</ele>
        <time>2022-05-26T04:14:19Z</time>
      </trkpt>
      <trkpt lat="50.49887" lon="3.72106">
        <ele>82</ele>
        <time>2022-05-26T04:14:25Z</time>
      </trkpt>
      <trkpt lat="50.49929" lon="3.72109">
        <ele>83</ele>
        <time>2022-05-26T04:14:34Z</time>
      </trkpt>
      <trkpt lat="50.49948" lon="3.72131">
        <ele>83</ele>
        <time>2022-05-26T04:14:40Z</time>
      </trkpt>
      <trkpt lat="50.49973" lon="3.72141">
        <ele>83</ele>
        <time>2022-05-26T04:14:46Z</time>
      </trkpt>
      <trkpt lat="50.50009" lon="3.72208">
        <ele>83</ele>
        <time>2022-05-26T04:14:59Z</time>
      </trkpt>
      <trkpt lat="50.50037" lon="3.72214">
        <ele>84</ele>
        <time>2022-05-26T04:15:05Z</time>
      </trkpt>
      <trkpt lat="50.50047" lon="3.72251">
        <ele>85</ele>
        <time>2022-05-26T04:15:11Z</time>
      </trkpt>
      <trkpt lat="50.50067" lon="3.72276">
        <ele>86</ele>
        <time>2022-05-26T04:15:17Z</time>
      </trkpt>
      <trkpt lat="50.50081" lon="3.72314">
        <ele>87</ele>
        <time>2022-05-26T04:15:24Z</time>
      </trkpt>
      <trkpt lat="50.50081" lon="3.72437">
        <ele>84</ele>
        <time>2022-05-26T04:15:42Z</time>
      </trkpt>
      <trkpt lat="50.5004" lon="3.72492">
        <ele>82</ele>
        <time>2022-05-26T04:15:55Z</time>
      </trkpt>
      <trkpt lat="50.50036" lon="3.72472">
        <ele>82</ele>
        <time>2022-05-26T04:15:58Z</time>
      </trkpt>
      <trkpt lat="50.50024" lon="3.72462">
        <ele>81</ele>
        <time>2022-05-26T04:16:01Z</time>
      </trkpt>
      <trkpt lat="50.50004" lon="3.72405">
        <ele>80</ele>
        <time>2022-05-26T04:16:11Z</time>
      </trkpt>
      <trkpt lat="50.50014" lon="3.72382">
        <ele>81</ele>
        <time>2022-05-26T04:16:15Z</time>
      </trkpt>
      <trkpt lat="50.50023" lon="3.72352">
        <ele>82</ele>
        <time>2022-05-26T04:16:20Z</time>
      </trkpt>
      <trkpt lat="50.5002" lon="3.72321">
        <ele>83</ele>
        <time>2022-05-26T04:16:24Z</time>
      </trkpt>
      <trkpt lat="50.50012" lon="3.72312">
        <ele>82</ele>
        <time>2022-05-26T04:16:27Z</time>
      </trkpt>
      <trkpt lat="50.50005" lon="3.72319">
        <ele>82</ele>
        <time>2022-05-26T04:16:29Z</time>
      </trkpt>
      <trkpt lat="50.50008" lon="3.7235">
        <ele>81</ele>
        <time>2022-05-26T04:16:33Z</time>
      </trkpt>
      <trkpt lat="50.49987" lon="3.72383">
        <ele>79</ele>
        <time>2022-05-26T04:16:40Z</time>
      </trkpt>
      <trkpt lat="50.49981" lon="3.72417">
        <ele>79</ele>
        <time>2022-05-26T04:16:46Z</time>
      </trkpt>
      <trkpt lat="50.49987" lon="3.7245">
        <ele>79</ele>
        <time>2022-05-26T04:16:51Z</time>
      </trkpt>
      <trkpt lat="50.50006" lon="3.72467">
        <ele>79</ele>
        <time>2022-05-26T04:16:56Z</time>
      </trkpt>
      <trkpt lat="50.50003" lon="3.72512">
        <ele>79</ele>
        <time>2022-05-26T04:17:02Z</time>
      </trkpt>
      <trkpt lat="50.50057" lon="3.72599">
        <ele>83</ele>
        <time>2022-05-26T04:17:21Z</time>
      </trkpt>
      <trkpt lat="50.50037" lon="3.72624">
        <ele>82</ele>
        <time>2022-05-26T04:17:27Z</time>
      </trkpt>
      <trkpt lat="50.50014" lon="3.72667">
        <ele>80</ele>
        <time>2022-05-26T04:17:35Z</time>
      </trkpt>
      <trkpt lat="50.50007" lon="3.72709">
        <ele>78</ele>
        <time>2022-05-26T04:17:41Z</time>
      </trkpt>
      <trkpt lat="50.49996" lon="3.72731">
        <ele>76</ele>
        <time>2022-05-26T04:17:45Z</time>
      </trkpt>
      <trkpt lat="50.49997" lon="3.72752">
        <ele>76</ele>
        <time>2022-05-26T04:17:49Z</time>
      </trkpt>
      <trkpt lat="50.49927" lon="3.72635">
        <ele>75</ele>
        <time>2022-05-26T04:18:12Z</time>
      </trkpt>
      <trkpt lat="50.49845" lon="3.7249">
        <ele>71</ele>
        <time>2022-05-26T04:18:41Z</time>
      </trkpt>
      <trkpt lat="50.49833" lon="3.72424">
        <ele>72</ele>
        <time>2022-05-26T04:18:51Z</time>
      </trkpt>
      <trkpt lat="50.49873" lon="3.72398">
        <ele>74</ele>
        <time>2022-05-26T04:19:02Z</time>
      </trkpt>
      <trkpt lat="50.49898" lon="3.72335">
        <ele>76</ele>
        <time>2022-05-26T04:19:13Z</time>
      </trkpt>
      <trkpt lat="50.49898" lon="3.72287">
        <ele>77</ele>
        <time>2022-05-26T04:19:20Z</time>
      </trkpt>
      <trkpt lat="50.49888" lon="3.72252">
        <ele>77</ele>
        <time>2022-05-26T04:19:25Z</time>
      </trkpt>
      <trkpt lat="50.49856" lon="3.72231">
        <ele>77</ele>
        <time>2022-05-26T04:19:34Z</time>
      </trkpt>
      <trkpt lat="50.49869" lon="3.72287">
        <ele>76</ele>
        <time>2022-05-26T04:19:42Z</time>
      </trkpt>
      <trkpt lat="50.49853" lon="3.72281">
        <ele>76</ele>
        <time>2022-05-26T04:19:46Z</time>
      </trkpt>
      <trkpt lat="50.49839" lon="3.72287">
        <ele>75</ele>
        <time>2022-05-26T04:19:50Z</time>
      </trkpt>
      <trkpt lat="50.49818" lon="3.72286">
        <ele>73</ele>
        <time>2022-05-26T04:19:55Z</time>
      </trkpt>
      <trkpt lat="50.49852" lon="3.72207">
        <ele>78</ele>
        <time>2022-05-26T04:20:09Z</time>
      </trkpt>
      <trkpt lat="50.49818" lon="3.72152">
        <ele>78</ele>
        <time>2022-05-26T04:20:20Z</time>
      </trkpt>
      <trkpt lat="50.49791" lon="3.72163">
        <ele>76</ele>
        <time>2022-05-26T04:20:27Z</time>
      </trkpt>
      <trkpt lat="50.49765" lon="3.72027">
        <ele>77</ele>
        <time>2022-05-26T04:20:48Z</time>
      </trkpt>
      <trkpt lat="50.49747" lon="3.71995">
        <ele>77</ele>
        <time>2022-05-26T04:20:54Z</time>
      </trkpt>
      <trkpt lat="50.49765" lon="3.71961">
        <ele>81</ele>
        <time>2022-05-26T04:21:01Z</time>
      </trkpt>
      <trkpt lat="50.49726" lon="3.71922">
        <ele>82</ele>
        <time>2022-05-26T04:21:11Z</time>
      </trkpt>
      <trkpt lat="50.49712" lon="3.71918">
        <ele>82</ele>
        <time>2022-05-26T04:21:15Z</time>
      </trkpt>
      <trkpt lat="50.49701" lon="3.71907">
        <ele>82</ele>
        <time>2022-05-26T04:21:18Z</time>
      </trkpt>
      <trkpt lat="50.49686" lon="3.71899">
        <ele>81</ele>
        <time>2022-05-26T04:21:21Z</time>
      </trkpt>
      <trkpt lat="50.49676" lon="3.71887">
        <ele>81</ele>
        <time>2022-05-26T04:21:24Z</time>
      </trkpt>
      <trkpt lat="50.49655" lon="3.71899">
        <ele>80</ele>
        <time>2022-05-26T04:21:30Z</time>
      </trkpt>
      <trkpt lat="50.49629" lon="3.71944">
        <ele>76</ele>
        <time>2022-05-26T04:21:39Z</time>
      </trkpt>
      <trkpt lat="50.49617" lon="3.71935">
        <ele>75</ele>
        <time>2022-05-26T04:21:42Z</time>
      </trkpt>
      <trkpt lat="50.49628" lon="3.71879">
        <ele>78</ele>
        <time>2022-05-26T04:21:50Z</time>
      </trkpt>
      <trkpt lat="50.49693" lon="3.71791">
        <ele>82</ele>
        <time>2022-05-26T04:22:11Z</time>
      </trkpt>
      <trkpt lat="50.49677" lon="3.71668">
        <ele>79</ele>
        <time>2022-05-26T04:22:29Z</time>
      </trkpt>
      <trkpt lat="50.49552" lon="3.7173">
        <ele>75</ele>
        <time>2022-05-26T04:23:00Z</time>
      </trkpt>
      <trkpt lat="50.49494" lon="3.71756">
        <ele>75</ele>
        <time>2022-05-26T04:23:14Z</time>
      </trkpt>
      <trkpt lat="50.4946" lon="3.71768">
        <ele>75</ele>
        <time>2022-05-26T04:23:22Z</time>
      </trkpt>
      <trkpt lat="50.49456" lon="3.71761">
        <ele>75</ele>
        <time>2022-05-26T04:23:23Z</time>
      </trkpt>
      <trkpt lat="50.4944" lon="3.71795">
        <ele>76</ele>
        <time>2022-05-26T04:23:30Z</time>
      </trkpt>
      <trkpt lat="50.4943" lon="3.71793">
        <ele>76</ele>
        <time>2022-05-26T04:23:32Z</time>
      </trkpt>
      <trkpt lat="50.49372" lon="3.71817">
        <ele>78</ele>
        <time>2022-05-26T04:23:46Z</time>
      </trkpt>
      <trkpt lat="50.49291" lon="3.71854">
        <ele>82</ele>
        <time>2022-05-26T04:24:06Z</time>
      </trkpt>
      <trkpt lat="50.49238" lon="3.71883">
        <ele>83</ele>
        <time>2022-05-26T04:24:19Z</time>
      </trkpt>
      <trkpt lat="50.49185" lon="3.71878">
        <ele>78</ele>
        <time>2022-05-26T04:24:31Z</time>
      </trkpt>
      <trkpt lat="50.49183" lon="3.71739">
        <ele>78</ele>
        <time>2022-05-26T04:24:52Z</time>
      </trkpt>
      <trkpt lat="50.49191" lon="3.71622">
        <ele>73</ele>
        <time>2022-05-26T04:25:09Z</time>
      </trkpt>
      <trkpt lat="50.49201" lon="3.7158">
        <ele>71</ele>
        <time>2022-05-26T04:25:16Z</time>
      </trkpt>
      <trkpt lat="50.49216" lon="3.71558">
        <ele>71</ele>
        <time>2022-05-26T04:25:21Z</time>
      </trkpt>
      <trkpt lat="50.49221" lon="3.71546">
        <ele>71</ele>
        <time>2022-05-26T04:25:23Z</time>
      </trkpt>
      <trkpt lat="50.49181" lon="3.70881">
        <ele>57</ele>
        <time>2022-05-26T04:27:02Z</time>
      </trkpt>
      <trkpt lat="50.49257" lon="3.70962">
        <ele>57</ele>
        <time>2022-05-26T04:27:24Z</time>
      </trkpt>
      <trkpt lat="50.4935" lon="3.71014">
        <ele>62</ele>
        <time>2022-05-26T04:27:47Z</time>
      </trkpt>
      <trkpt lat="50.49414" lon="3.70949">
        <ele>66</ele>
        <time>2022-05-26T04:28:04Z</time>
      </trkpt>
      <trkpt lat="50.49504" lon="3.70797">
        <ele>66</ele>
        <time>2022-05-26T04:28:35Z</time>
      </trkpt>
      <trkpt lat="50.495" lon="3.70794">
        <ele>66</ele>
        <time>2022-05-26T04:28:36Z</time>
      </trkpt>
      <trkpt lat="50.49494" lon="3.70731">
        <ele>68</ele>
        <time>2022-05-26T04:28:46Z</time>
      </trkpt>
      <trkpt lat="50.49407" lon="3.70077">
        <ele>80</ele>
        <time>2022-05-26T04:30:25Z</time>
      </trkpt>
      <trkpt lat="50.49448" lon="3.70069">
        <ele>81</ele>
        <time>2022-05-26T04:30:35Z</time>
      </trkpt>
      <trkpt lat="50.49455" lon="3.70065">
        <ele>81</ele>
        <time>2022-05-26T04:30:36Z</time>
      </trkpt>
      <trkpt lat="50.4944" lon="3.70019">
        <ele>83</ele>
        <time>2022-05-26T04:30:44Z</time>
      </trkpt>
      <trkpt lat="50.49444" lon="3.69977">
        <ele>84</ele>
        <time>2022-05-26T04:30:50Z</time>
      </trkpt>
      <trkpt lat="50.49448" lon="3.69968">
        <ele>84</ele>
        <time>2022-05-26T04:30:52Z</time>
      </trkpt>
      <trkpt lat="50.49449" lon="3.69939">
        <ele>84</ele>
        <time>2022-05-26T04:30:56Z</time>
      </trkpt>
      <trkpt lat="50.49443" lon="3.69924">
        <ele>84</ele>
        <time>2022-05-26T04:30:59Z</time>
      </trkpt>
      <trkpt lat="50.49444" lon="3.69887">
        <ele>84</ele>
        <time>2022-05-26T04:31:05Z</time>
      </trkpt>
      <trkpt lat="50.49442" lon="3.69876">
        <ele>84</ele>
        <time>2022-05-26T04:31:06Z</time>
      </trkpt>
      <trkpt lat="50.49429" lon="3.6986">
        <ele>83</ele>
        <time>2022-05-26T04:31:10Z</time>
      </trkpt>
      <trkpt lat="50.49435" lon="3.69813">
        <ele>83</ele>
        <time>2022-05-26T04:31:17Z</time>
      </trkpt>
      <trkpt lat="50.49432" lon="3.69774">
        <ele>82</ele>
        <time>2022-05-26T04:31:23Z</time>
      </trkpt>
      <trkpt lat="50.49432" lon="3.69733">
        <ele>82</ele>
        <time>2022-05-26T04:31:29Z</time>
      </trkpt>
      <trkpt lat="50.49423" lon="3.69711">
        <ele>82</ele>
        <time>2022-05-26T04:31:33Z</time>
      </trkpt>
      <trkpt lat="50.49392" lon="3.69675">
        <ele>81</ele>
        <time>2022-05-26T04:31:42Z</time>
      </trkpt>
      <trkpt lat="50.49404" lon="3.69654">
        <ele>81</ele>
        <time>2022-05-26T04:31:46Z</time>
      </trkpt>
      <trkpt lat="50.49411" lon="3.69648">
        <ele>81</ele>
        <time>2022-05-26T04:31:48Z</time>
      </trkpt>
      <trkpt lat="50.49471" lon="3.6966">
        <ele>82</ele>
        <time>2022-05-26T04:32:02Z</time>
      </trkpt>
      <trkpt lat="50.49498" lon="3.69645">
        <ele>81</ele>
        <time>2022-05-26T04:32:09Z</time>
      </trkpt>
      <trkpt lat="50.49443" lon="3.6947">
        <ele>76</ele>
        <time>2022-05-26T04:32:38Z</time>
      </trkpt>
      <trkpt lat="50.49529" lon="3.69465">
        <ele>72</ele>
        <time>2022-05-26T04:32:58Z</time>
      </trkpt>
      <trkpt lat="50.49954" lon="3.6943">
        <ele>57</ele>
        <time>2022-05-26T04:34:37Z</time>
      </trkpt>
      <trkpt lat="50.50013" lon="3.69428">
        <ele>56</ele>
        <time>2022-05-26T04:34:51Z</time>
      </trkpt>
      <trkpt lat="50.50069" lon="3.69414">
        <ele>54</ele>
        <time>2022-05-26T04:35:04Z</time>
      </trkpt>
      <trkpt lat="50.50208" lon="3.69399">
        <ele>53</ele>
        <time>2022-05-26T04:35:37Z</time>
      </trkpt>
      <trkpt lat="50.50199" lon="3.69377">
        <ele>54</ele>
        <time>2022-05-26T04:35:41Z</time>
      </trkpt>
      <trkpt lat="50.50203" lon="3.6935">
        <ele>54</ele>
        <time>2022-05-26T04:35:45Z</time>
      </trkpt>
      <trkpt lat="50.50214" lon="3.69306">
        <ele>53</ele>
        <time>2022-05-26T04:35:52Z</time>
      </trkpt>
      <trkpt lat="50.502" lon="3.69024">
        <ele>50</ele>
        <time>2022-05-26T04:36:34Z</time>
      </trkpt>
      <trkpt lat="50.50204" lon="3.69002">
        <ele>49</ele>
        <time>2022-05-26T04:36:37Z</time>
      </trkpt>
      <trkpt lat="50.50201" lon="3.68957">
        <ele>49</ele>
        <time>2022-05-26T04:36:44Z</time>
      </trkpt>
      <trkpt lat="50.50195" lon="3.68942">
        <ele>49</ele>
        <time>2022-05-26T04:36:47Z</time>
      </trkpt>
      <trkpt lat="50.50155" lon="3.68254">
        <ele>49</ele>
        <time>2022-05-26T04:38:29Z</time>
      </trkpt>
      <trkpt lat="50.50149" lon="3.682">
        <ele>49</ele>
        <time>2022-05-26T04:38:38Z</time>
      </trkpt>
      <trkpt lat="50.50152" lon="3.68171">
        <ele>48</ele>
        <time>2022-05-26T04:38:42Z</time>
      </trkpt>
      <trkpt lat="50.50148" lon="3.68066">
        <ele>48</ele>
        <time>2022-05-26T04:38:57Z</time>
      </trkpt>
      <trkpt lat="50.50149" lon="3.67883">
        <ele>44</ele>
        <time>2022-05-26T04:39:25Z</time>
      </trkpt>
      <trkpt lat="50.50147" lon="3.67869">
        <ele>44</ele>
        <time>2022-05-26T04:39:27Z</time>
      </trkpt>
      <trkpt lat="50.50137" lon="3.67862">
        <ele>44</ele>
        <time>2022-05-26T04:39:29Z</time>
      </trkpt>
      <trkpt lat="50.50134" lon="3.67829">
        <ele>44</ele>
        <time>2022-05-26T04:39:34Z</time>
      </trkpt>
      <trkpt lat="50.50141" lon="3.67784">
        <ele>42</ele>
        <time>2022-05-26T04:39:41Z</time>
      </trkpt>
      <trkpt lat="50.50119" lon="3.67725">
        <ele>43</ele>
        <time>2022-05-26T04:39:51Z</time>
      </trkpt>
      <trkpt lat="50.5011" lon="3.67712">
        <ele>44</ele>
        <time>2022-05-26T04:39:54Z</time>
      </trkpt>
      <trkpt lat="50.50051" lon="3.67655">
        <ele>46</ele>
        <time>2022-05-26T04:40:10Z</time>
      </trkpt>
      <trkpt lat="50.4998" lon="3.67513">
        <ele>42</ele>
        <time>2022-05-26T04:40:37Z</time>
      </trkpt>
      <trkpt lat="50.4996" lon="3.67481">
        <ele>41</ele>
        <time>2022-05-26T04:40:44Z</time>
      </trkpt>
      <trkpt lat="50.49925" lon="3.67531">
        <ele>42</ele>
        <time>2022-05-26T04:40:55Z</time>
      </trkpt>
      <trkpt lat="50.49877" lon="3.67565">
        <ele>44</ele>
        <time>2022-05-26T04:41:07Z</time>
      </trkpt>
      <trkpt lat="50.49865" lon="3.67576">
        <ele>44</ele>
        <time>2022-05-26T04:41:10Z</time>
      </trkpt>
      <trkpt lat="50.49845" lon="3.67579">
        <ele>45</ele>
        <time>2022-05-26T04:41:15Z</time>
      </trkpt>
      <trkpt lat="50.49821" lon="3.67574">
        <ele>45</ele>
        <time>2022-05-26T04:41:21Z</time>
      </trkpt>
      <trkpt lat="50.49739" lon="3.67547">
        <ele>48</ele>
        <time>2022-05-26T04:41:40Z</time>
      </trkpt>
      <trkpt lat="50.49685" lon="3.67539">
        <ele>48</ele>
        <time>2022-05-26T04:41:53Z</time>
      </trkpt>
      <trkpt lat="50.49651" lon="3.67521">
        <ele>49</ele>
        <time>2022-05-26T04:42:01Z</time>
      </trkpt>
      <trkpt lat="50.49648" lon="3.67513">
        <ele>49</ele>
        <time>2022-05-26T04:42:03Z</time>
      </trkpt>
      <trkpt lat="50.49669" lon="3.6742">
        <ele>48</ele>
        <time>2022-05-26T04:42:17Z</time>
      </trkpt>
      <trkpt lat="50.49668" lon="3.67396">
        <ele>47</ele>
        <time>2022-05-26T04:42:21Z</time>
      </trkpt>
      <trkpt lat="50.49659" lon="3.6734">
        <ele>46</ele>
        <time>2022-05-26T04:42:30Z</time>
      </trkpt>
      <trkpt lat="50.49637" lon="3.67261">
        <ele>46</ele>
        <time>2022-05-26T04:42:42Z</time>
      </trkpt>
      <trkpt lat="50.49626" lon="3.67182">
        <ele>46</ele>
        <time>2022-05-26T04:42:54Z</time>
      </trkpt>
      <trkpt lat="50.49717" lon="3.67015">
        <ele>45</ele>
        <time>2022-05-26T04:43:27Z</time>
      </trkpt>
      <trkpt lat="50.49638" lon="3.66912">
        <ele>47</ele>
        <time>2022-05-26T04:43:51Z</time>
      </trkpt>
      <trkpt lat="50.49625" lon="3.66898">
        <ele>47</ele>
        <time>2022-05-26T04:43:55Z</time>
      </trkpt>
      <trkpt lat="50.4953" lon="3.6706">
        <ele>49</ele>
        <time>2022-05-26T04:44:27Z</time>
      </trkpt>
      <trkpt lat="50.49492" lon="3.66946">
        <ele>52</ele>
        <time>2022-05-26T04:44:47Z</time>
      </trkpt>
      <trkpt lat="50.49508" lon="3.66913">
        <ele>52</ele>
        <time>2022-05-26T04:44:53Z</time>
      </trkpt>
      <trkpt lat="50.49468" lon="3.66811">
        <ele>53</ele>
        <time>2022-05-26T04:45:11Z</time>
      </trkpt>
      <trkpt lat="50.49414" lon="3.66741">
        <ele>54</ele>
        <time>2022-05-26T04:45:27Z</time>
      </trkpt>
      <trkpt lat="50.49407" lon="3.66722">
        <ele>53</ele>
        <time>2022-05-26T04:45:30Z</time>
      </trkpt>
      <trkpt lat="50.49385" lon="3.66685">
        <ele>53</ele>
        <time>2022-05-26T04:45:38Z</time>
      </trkpt>
      <trkpt lat="50.49359" lon="3.66668">
        <ele>53</ele>
        <time>2022-05-26T04:45:44Z</time>
      </trkpt>
      <trkpt lat="50.49322" lon="3.66589">
        <ele>53</ele>
        <time>2022-05-26T04:45:59Z</time>
      </trkpt>
      <trkpt lat="50.49297" lon="3.66548">
        <ele>53</ele>
        <time>2022-05-26T04:46:07Z</time>
      </trkpt>
      <trkpt lat="50.49263" lon="3.66484">
        <ele>54</ele>
        <time>2022-05-26T04:46:20Z</time>
      </trkpt>
      <trkpt lat="50.49242" lon="3.66453">
        <ele>54</ele>
        <time>2022-05-26T04:46:26Z</time>
      </trkpt>
      <trkpt lat="50.49231" lon="3.66453">
        <ele>53</ele>
        <time>2022-05-26T04:46:29Z</time>
      </trkpt>
      <trkpt lat="50.49222" lon="3.66462">
        <ele>53</ele>
        <time>2022-05-26T04:46:31Z</time>
      </trkpt>
      <trkpt lat="50.49213" lon="3.66481">
        <ele>52</ele>
        <time>2022-05-26T04:46:35Z</time>
      </trkpt>
      <trkpt lat="50.49187" lon="3.66463">
        <ele>51</ele>
        <time>2022-05-26T04:46:42Z</time>
      </trkpt>
      <trkpt lat="50.49203" lon="3.66392">
        <ele>50</ele>
        <time>2022-05-26T04:46:53Z</time>
      </trkpt>
      <trkpt lat="50.49221" lon="3.6636">
        <ele>50</ele>
        <time>2022-05-26T04:46:59Z</time>
      </trkpt>
      <trkpt lat="50.49232" lon="3.66348">
        <ele>51</ele>
        <time>2022-05-26T04:47:02Z</time>
      </trkpt>
      <trkpt lat="50.49249" lon="3.6634">
        <ele>52</ele>
        <time>2022-05-26T04:47:06Z</time>
      </trkpt>
      <trkpt lat="50.49262" lon="3.6635">
        <ele>53</ele>
        <time>2022-05-26T04:47:10Z</time>
      </trkpt>
      <trkpt lat="50.49282" lon="3.66372">
        <ele>53</ele>
        <time>2022-05-26T04:47:16Z</time>
      </trkpt>
      <trkpt lat="50.49293" lon="3.66375">
        <ele>53</ele>
        <time>2022-05-26T04:47:18Z</time>
      </trkpt>
      <trkpt lat="50.49279" lon="3.66359">
        <ele>53</ele>
        <time>2022-05-26T04:47:22Z</time>
      </trkpt>
      <trkpt lat="50.49267" lon="3.66339">
        <ele>53</ele>
        <time>2022-05-26T04:47:26Z</time>
      </trkpt>
      <trkpt lat="50.49182" lon="3.66129">
        <ele>39</ele>
        <time>2022-05-26T04:48:03Z</time>
      </trkpt>
      <trkpt lat="50.49327" lon="3.66179">
        <ele>52</ele>
        <time>2022-05-26T04:48:38Z</time>
      </trkpt>
      <trkpt lat="50.49437" lon="3.66231">
        <ele>55</ele>
        <time>2022-05-26T04:49:05Z</time>
      </trkpt>
      <trkpt lat="50.49608" lon="3.66284">
        <ele>55</ele>
        <time>2022-05-26T04:49:45Z</time>
      </trkpt>
      <trkpt lat="50.49629" lon="3.66286">
        <ele>55</ele>
        <time>2022-05-26T04:49:50Z</time>
      </trkpt>
      <trkpt lat="50.49638" lon="3.66302">
        <ele>54</ele>
        <time>2022-05-26T04:49:53Z</time>
      </trkpt>
      <trkpt lat="50.49657" lon="3.66318">
        <ele>54</ele>
        <time>2022-05-26T04:49:59Z</time>
      </trkpt>
      <trkpt lat="50.49768" lon="3.66497">
        <ele>53</ele>
        <time>2022-05-26T04:50:36Z</time>
      </trkpt>
      <trkpt lat="50.49755" lon="3.66521">
        <ele>52</ele>
        <time>2022-05-26T04:50:40Z</time>
      </trkpt>
      <trkpt lat="50.49753" lon="3.66517">
        <ele>53</ele>
        <time>2022-05-26T04:50:41Z</time>
      </trkpt>
      <trkpt lat="50.49707" lon="3.66618">
        <ele>49</ele>
        <time>2022-05-26T04:51:00Z</time>
      </trkpt>
      <trkpt lat="50.49719" lon="3.66608">
        <ele>49</ele>
        <time>2022-05-26T04:51:03Z</time>
      </trkpt>
      <trkpt lat="50.4973" lon="3.66592">
        <ele>49</ele>
        <time>2022-05-26T04:51:06Z</time>
      </trkpt>
      <trkpt lat="50.4974" lon="3.66584">
        <ele>49</ele>
        <time>2022-05-26T04:51:09Z</time>
      </trkpt>
      <trkpt lat="50.49777" lon="3.6657">
        <ele>48</ele>
        <time>2022-05-26T04:51:18Z</time>
      </trkpt>
      <trkpt lat="50.49864" lon="3.66494">
        <ele>44</ele>
        <time>2022-05-26T04:51:41Z</time>
      </trkpt>
      <trkpt lat="50.49878" lon="3.66361">
        <ele>44</ele>
        <time>2022-05-26T04:52:01Z</time>
      </trkpt>
      <trkpt lat="50.49912" lon="3.66337">
        <ele>39</ele>
        <time>2022-05-26T04:52:10Z</time>
      </trkpt>
      <trkpt lat="50.49962" lon="3.66321">
        <ele>36</ele>
        <time>2022-05-26T04:52:22Z</time>
      </trkpt>
      <trkpt lat="50.49988" lon="3.66315">
        <ele>35</ele>
        <time>2022-05-26T04:52:28Z</time>
      </trkpt>
      <trkpt lat="50.50022" lon="3.66315">
        <ele>36</ele>
        <time>2022-05-26T04:52:36Z</time>
      </trkpt>
      <trkpt lat="50.50028" lon="3.66305">
        <ele>36</ele>
        <time>2022-05-26T04:52:38Z</time>
      </trkpt>
      <trkpt lat="50.50032" lon="3.6629">
        <ele>36</ele>
        <time>2022-05-26T04:52:40Z</time>
      </trkpt>
      <trkpt lat="50.50028" lon="3.66255">
        <ele>36</ele>
        <time>2022-05-26T04:52:45Z</time>
      </trkpt>
      <trkpt lat="50.50012" lon="3.6626">
        <ele>35</ele>
        <time>2022-05-26T04:52:49Z</time>
      </trkpt>
      <trkpt lat="50.49995" lon="3.66251">
        <ele>35</ele>
        <time>2022-05-26T04:52:53Z</time>
      </trkpt>
      <trkpt lat="50.49836" lon="3.66049">
        <ele>35</ele>
        <time>2022-05-26T04:53:41Z</time>
      </trkpt>
      <trkpt lat="50.49739" lon="3.6593">
        <ele>35</ele>
        <time>2022-05-26T04:54:10Z</time>
      </trkpt>
      <trkpt lat="50.49699" lon="3.6589">
        <ele>34</ele>
        <time>2022-05-26T04:54:21Z</time>
      </trkpt>
      <trkpt lat="50.4962" lon="3.65832">
        <ele>35</ele>
        <time>2022-05-26T04:54:41Z</time>
      </trkpt>
      <trkpt lat="50.49595" lon="3.65817">
        <ele>36</ele>
        <time>2022-05-26T04:54:48Z</time>
      </trkpt>
      <trkpt lat="50.49521" lon="3.65788">
        <ele>36</ele>
        <time>2022-05-26T04:55:05Z</time>
      </trkpt>
      <trkpt lat="50.49441" lon="3.65775">
        <ele>35</ele>
        <time>2022-05-26T04:55:24Z</time>
      </trkpt>
      <trkpt lat="50.49343" lon="3.6578">
        <ele>32</ele>
        <time>2022-05-26T04:55:47Z</time>
      </trkpt>
      <trkpt lat="50.4927" lon="3.65802">
        <ele>32</ele>
        <time>2022-05-26T04:56:04Z</time>
      </trkpt>
      <trkpt lat="50.49251" lon="3.65805">
        <ele>31</ele>
        <time>2022-05-26T04:56:09Z</time>
      </trkpt>
      <trkpt lat="50.49238" lon="3.658">
        <ele>31</ele>
        <time>2022-05-26T04:56:12Z</time>
      </trkpt>
      <trkpt lat="50.49224" lon="3.65781">
        <ele>31</ele>
        <time>2022-05-26T04:56:16Z</time>
      </trkpt>
      <trkpt lat="50.49217" lon="3.6575">
        <ele>32</ele>
        <time>2022-05-26T04:56:21Z</time>
      </trkpt>
      <trkpt lat="50.49226" lon="3.65711">
        <ele>33</ele>
        <time>2022-05-26T04:56:27Z</time>
      </trkpt>
      <trkpt lat="50.49376" lon="3.65207">
        <ele>33</ele>
        <time>2022-05-26T04:57:50Z</time>
      </trkpt>
      <trkpt lat="50.49394" lon="3.6522">
        <ele>34</ele>
        <time>2022-05-26T04:57:55Z</time>
      </trkpt>
      <trkpt lat="50.49413" lon="3.65243">
        <ele>36</ele>
        <time>2022-05-26T04:58:00Z</time>
      </trkpt>
      <trkpt lat="50.4942" lon="3.65268">
        <ele>36</ele>
        <time>2022-05-26T04:58:04Z</time>
      </trkpt>
      <trkpt lat="50.49444" lon="3.6532">
        <ele>36</ele>
        <time>2022-05-26T04:58:14Z</time>
      </trkpt>
      <trkpt lat="50.49519" lon="3.65251">
        <ele>39</ele>
        <time>2022-05-26T04:58:34Z</time>
      </trkpt>
      <trkpt lat="50.49537" lon="3.65289">
        <ele>41</ele>
        <time>2022-05-26T04:58:41Z</time>
      </trkpt>
      <trkpt lat="50.4956" lon="3.65379">
        <ele>43</ele>
        <time>2022-05-26T04:58:56Z</time>
      </trkpt>
      <trkpt lat="50.49567" lon="3.65403">
        <ele>44</ele>
        <time>2022-05-26T04:59:00Z</time>
      </trkpt>
      <trkpt lat="50.49575" lon="3.6542">
        <ele>44</ele>
        <time>2022-05-26T04:59:03Z</time>
      </trkpt>
      <trkpt lat="50.49586" lon="3.65432">
        <ele>45</ele>
        <time>2022-05-26T04:59:06Z</time>
      </trkpt>
      <trkpt lat="50.49666" lon="3.65485">
        <ele>45</ele>
        <time>2022-05-26T04:59:26Z</time>
      </trkpt>
      <trkpt lat="50.49674" lon="3.65501">
        <ele>44</ele>
        <time>2022-05-26T04:59:29Z</time>
      </trkpt>
      <trkpt lat="50.49705" lon="3.65406">
        <ele>46</ele>
        <time>2022-05-26T04:59:45Z</time>
      </trkpt>
      <trkpt lat="50.4972" lon="3.65241">
        <ele>51</ele>
        <time>2022-05-26T05:00:10Z</time>
      </trkpt>
      <trkpt lat="50.49744" lon="3.65157">
        <ele>57</ele>
        <time>2022-05-26T05:00:23Z</time>
      </trkpt>
      <trkpt lat="50.4973" lon="3.65021">
        <ele>61</ele>
        <time>2022-05-26T05:00:44Z</time>
      </trkpt>
      <trkpt lat="50.49751" lon="3.65001">
        <ele>62</ele>
        <time>2022-05-26T05:00:50Z</time>
      </trkpt>
      <trkpt lat="50.49793" lon="3.64742">
        <ele>68</ele>
        <time>2022-05-26T05:01:29Z</time>
      </trkpt>
      <trkpt lat="50.49804" lon="3.64696">
        <ele>70</ele>
        <time>2022-05-26T05:01:37Z</time>
      </trkpt>
      <trkpt lat="50.50052" lon="3.63894">
        <ele>39</ele>
        <time>2022-05-26T05:03:49Z</time>
      </trkpt>
      <trkpt lat="50.49952" lon="3.63568">
        <ele>44</ele>
        <time>2022-05-26T05:04:43Z</time>
      </trkpt>
      <trkpt lat="50.4993" lon="3.63591">
        <ele>45</ele>
        <time>2022-05-26T05:04:49Z</time>
      </trkpt>
      <trkpt lat="50.49913" lon="3.63605">
        <ele>47</ele>
        <time>2022-05-26T05:04:54Z</time>
      </trkpt>
      <trkpt lat="50.49826" lon="3.63817">
        <ele>57</ele>
        <time>2022-05-26T05:05:31Z</time>
      </trkpt>
      <trkpt lat="50.49819" lon="3.63807">
        <ele>58</ele>
        <time>2022-05-26T05:05:33Z</time>
      </trkpt>
      <trkpt lat="50.49808" lon="3.63804">
        <ele>59</ele>
        <time>2022-05-26T05:05:36Z</time>
      </trkpt>
      <trkpt lat="50.49805" lon="3.63795">
        <ele>59</ele>
        <time>2022-05-26T05:05:37Z</time>
      </trkpt>
      <trkpt lat="50.49793" lon="3.63784">
        <ele>59</ele>
        <time>2022-05-26T05:05:41Z</time>
      </trkpt>
      <trkpt lat="50.498" lon="3.63773">
        <ele>58</ele>
        <time>2022-05-26T05:05:43Z</time>
      </trkpt>
      <trkpt lat="50.49809" lon="3.63699">
        <ele>59</ele>
        <time>2022-05-26T05:05:54Z</time>
      </trkpt>
      <trkpt lat="50.49808" lon="3.63603">
        <ele>65</ele>
        <time>2022-05-26T05:06:08Z</time>
      </trkpt>
      <trkpt lat="50.49788" lon="3.63509">
        <ele>71</ele>
        <time>2022-05-26T05:06:23Z</time>
      </trkpt>
      <trkpt lat="50.49793" lon="3.63376">
        <ele>70</ele>
        <time>2022-05-26T05:06:43Z</time>
      </trkpt>
      <trkpt lat="50.49773" lon="3.63275">
        <ele>71</ele>
        <time>2022-05-26T05:06:59Z</time>
      </trkpt>
      <trkpt lat="50.49757" lon="3.63155">
        <ele>73</ele>
        <time>2022-05-26T05:07:17Z</time>
      </trkpt>
      <trkpt lat="50.49753" lon="3.63061">
        <ele>72</ele>
        <time>2022-05-26T05:07:31Z</time>
      </trkpt>
      <trkpt lat="50.49758" lon="3.62916">
        <ele>73</ele>
        <time>2022-05-26T05:07:52Z</time>
      </trkpt>
      <trkpt lat="50.4975" lon="3.62856">
        <ele>72</ele>
        <time>2022-05-26T05:08:01Z</time>
      </trkpt>
      <trkpt lat="50.49748" lon="3.62811">
        <ele>71</ele>
        <time>2022-05-26T05:08:08Z</time>
      </trkpt>
      <trkpt lat="50.49754" lon="3.6277">
        <ele>70</ele>
        <time>2022-05-26T05:08:14Z</time>
      </trkpt>
      <trkpt lat="50.49746" lon="3.627">
        <ele>71</ele>
        <time>2022-05-26T05:08:25Z</time>
      </trkpt>
      <trkpt lat="50.49747" lon="3.62549">
        <ele>71</ele>
        <time>2022-05-26T05:08:47Z</time>
      </trkpt>
      <trkpt lat="50.49757" lon="3.62452">
        <ele>66</ele>
        <time>2022-05-26T05:09:02Z</time>
      </trkpt>
      <trkpt lat="50.49757" lon="3.62409">
        <ele>64</ele>
        <time>2022-05-26T05:09:08Z</time>
      </trkpt>
      <trkpt lat="50.49766" lon="3.62345">
        <ele>65</ele>
        <time>2022-05-26T05:09:18Z</time>
      </trkpt>
      <trkpt lat="50.49741" lon="3.62369">
        <ele>64</ele>
        <time>2022-05-26T05:09:25Z</time>
      </trkpt>
      <trkpt lat="50.49718" lon="3.62368">
        <ele>62</ele>
        <time>2022-05-26T05:09:30Z</time>
      </trkpt>
      <trkpt lat="50.49701" lon="3.62375">
        <ele>60</ele>
        <time>2022-05-26T05:09:34Z</time>
      </trkpt>
      <trkpt lat="50.49661" lon="3.62404">
        <ele>56</ele>
        <time>2022-05-26T05:09:45Z</time>
      </trkpt>
      <trkpt lat="50.4964" lon="3.62444">
        <ele>57</ele>
        <time>2022-05-26T05:09:52Z</time>
      </trkpt>
      <trkpt lat="50.49623" lon="3.62497">
        <ele>59</ele>
        <time>2022-05-26T05:10:01Z</time>
      </trkpt>
      <trkpt lat="50.49591" lon="3.62558">
        <ele>56</ele>
        <time>2022-05-26T05:10:13Z</time>
      </trkpt>
      <trkpt lat="50.49578" lon="3.62558">
        <ele>55</ele>
        <time>2022-05-26T05:10:16Z</time>
      </trkpt>
      <trkpt lat="50.49585" lon="3.62385">
        <ele>54</ele>
        <time>2022-05-26T05:10:42Z</time>
      </trkpt>
      <trkpt lat="50.49599" lon="3.62275">
        <ele>53</ele>
        <time>2022-05-26T05:10:58Z</time>
      </trkpt>
      <trkpt lat="50.49602" lon="3.62199">
        <ele>51</ele>
        <time>2022-05-26T05:11:10Z</time>
      </trkpt>
      <trkpt lat="50.49615" lon="3.62117">
        <ele>51</ele>
        <time>2022-05-26T05:11:22Z</time>
      </trkpt>
      <trkpt lat="50.49614" lon="3.6205">
        <ele>52</ele>
        <time>2022-05-26T05:11:32Z</time>
      </trkpt>
      <trkpt lat="50.49626" lon="3.62019">
        <ele>54</ele>
        <time>2022-05-26T05:11:38Z</time>
      </trkpt>
      <trkpt lat="50.4976" lon="3.6199">
        <ele>72</ele>
        <time>2022-05-26T05:12:09Z</time>
      </trkpt>
      <trkpt lat="50.49768" lon="3.61855">
        <ele>73</ele>
        <time>2022-05-26T05:12:29Z</time>
      </trkpt>
      <trkpt lat="50.49793" lon="3.61728">
        <ele>72</ele>
        <time>2022-05-26T05:12:49Z</time>
      </trkpt>
      <trkpt lat="50.49644" lon="3.61697">
        <ele>61</ele>
        <time>2022-05-26T05:13:24Z</time>
      </trkpt>
      <trkpt lat="50.49649" lon="3.61668">
        <ele>60</ele>
        <time>2022-05-26T05:13:29Z</time>
      </trkpt>
      <trkpt lat="50.49679" lon="3.61616">
        <ele>60</ele>
        <time>2022-05-26T05:13:39Z</time>
      </trkpt>
      <trkpt lat="50.49696" lon="3.61575">
        <ele>59</ele>
        <time>2022-05-26T05:13:46Z</time>
      </trkpt>
      <trkpt lat="50.49709" lon="3.61533">
        <ele>57</ele>
        <time>2022-05-26T05:13:53Z</time>
      </trkpt>
      <trkpt lat="50.49711" lon="3.615">
        <ele>55</ele>
        <time>2022-05-26T05:13:58Z</time>
      </trkpt>
      <trkpt lat="50.49709" lon="3.61438">
        <ele>54</ele>
        <time>2022-05-26T05:14:07Z</time>
      </trkpt>
      <trkpt lat="50.49698" lon="3.6129">
        <ele>53</ele>
        <time>2022-05-26T05:14:30Z</time>
      </trkpt>
      <trkpt lat="50.49695" lon="3.61172">
        <ele>55</ele>
        <time>2022-05-26T05:14:47Z</time>
      </trkpt>
      <trkpt lat="50.49713" lon="3.61201">
        <ele>56</ele>
        <time>2022-05-26T05:14:53Z</time>
      </trkpt>
      <trkpt lat="50.49726" lon="3.61195">
        <ele>57</ele>
        <time>2022-05-26T05:14:56Z</time>
      </trkpt>
      <trkpt lat="50.49739" lon="3.61197">
        <ele>59</ele>
        <time>2022-05-26T05:14:59Z</time>
      </trkpt>
      <trkpt lat="50.49747" lon="3.6119">
        <ele>59</ele>
        <time>2022-05-26T05:15:02Z</time>
      </trkpt>
      <trkpt lat="50.49766" lon="3.61185">
        <ele>61</ele>
        <time>2022-05-26T05:15:06Z</time>
      </trkpt>
      <trkpt lat="50.49792" lon="3.61191">
        <ele>62</ele>
        <time>2022-05-26T05:15:12Z</time>
      </trkpt>
      <trkpt lat="50.49784" lon="3.61108">
        <ele>61</ele>
        <time>2022-05-26T05:15:25Z</time>
      </trkpt>
      <trkpt lat="50.49786" lon="3.61102">
        <ele>61</ele>
        <time>2022-05-26T05:15:26Z</time>
      </trkpt>
      <trkpt lat="50.4978" lon="3.61032">
        <ele>61</ele>
        <time>2022-05-26T05:15:36Z</time>
      </trkpt>
      <trkpt lat="50.49829" lon="3.61007">
        <ele>63</ele>
        <time>2022-05-26T05:15:48Z</time>
      </trkpt>
      <trkpt lat="50.49852" lon="3.60986">
        <ele>63</ele>
        <time>2022-05-26T05:15:54Z</time>
      </trkpt>
      <trkpt lat="50.49844" lon="3.60968">
        <ele>62</ele>
        <time>2022-05-26T05:15:58Z</time>
      </trkpt>
      <trkpt lat="50.49884" lon="3.60922">
        <ele>61</ele>
        <time>2022-05-26T05:16:09Z</time>
      </trkpt>
      <trkpt lat="50.49885" lon="3.60928">
        <ele>61</ele>
        <time>2022-05-26T05:16:10Z</time>
      </trkpt>
      <trkpt lat="50.49968" lon="3.60801">
        <ele>49</ele>
        <time>2022-05-26T05:16:37Z</time>
      </trkpt>
      <trkpt lat="50.49969" lon="3.60795">
        <ele>49</ele>
        <time>2022-05-26T05:16:38Z</time>
      </trkpt>
      <trkpt lat="50.50028" lon="3.60796">
        <ele>45</ele>
        <time>2022-05-26T05:16:52Z</time>
      </trkpt>
      <trkpt lat="50.50111" lon="3.60691">
        <ele>39</ele>
        <time>2022-05-26T05:17:17Z</time>
      </trkpt>
      <trkpt lat="50.50077" lon="3.60612">
        <ele>40</ele>
        <time>2022-05-26T05:17:31Z</time>
      </trkpt>
      <trkpt lat="50.50019" lon="3.60495">
        <ele>40</ele>
        <time>2022-05-26T05:17:53Z</time>
      </trkpt>
      <trkpt lat="50.49994" lon="3.60461">
        <ele>39</ele>
        <time>2022-05-26T05:18:01Z</time>
      </trkpt>
      <trkpt lat="50.50035" lon="3.60391">
        <ele>39</ele>
        <time>2022-05-26T05:18:15Z</time>
      </trkpt>
      <trkpt lat="50.50025" lon="3.60325">
        <ele>39</ele>
        <time>2022-05-26T05:18:25Z</time>
      </trkpt>
      <trkpt lat="50.50011" lon="3.60291">
        <ele>39</ele>
        <time>2022-05-26T05:18:31Z</time>
      </trkpt>
      <trkpt lat="50.50303" lon="3.59831">
        <ele>34</ele>
        <time>2022-05-26T05:20:07Z</time>
      </trkpt>
      <trkpt lat="50.50331" lon="3.59802">
        <ele>32</ele>
        <time>2022-05-26T05:20:15Z</time>
      </trkpt>
      <trkpt lat="50.50331" lon="3.59785">
        <ele>33</ele>
        <time>2022-05-26T05:20:18Z</time>
      </trkpt>
      <trkpt lat="50.50323" lon="3.5978">
        <ele>33</ele>
        <time>2022-05-26T05:20:20Z</time>
      </trkpt>
      <trkpt lat="50.5032" lon="3.59767">
        <ele>33</ele>
        <time>2022-05-26T05:20:22Z</time>
      </trkpt>
      <trkpt lat="50.50322" lon="3.59715">
        <ele>33</ele>
        <time>2022-05-26T05:20:30Z</time>
      </trkpt>
      <trkpt lat="50.5032" lon="3.59679">
        <ele>32</ele>
        <time>2022-05-26T05:20:35Z</time>
      </trkpt>
      <trkpt lat="50.50295" lon="3.59546">
        <ele>32</ele>
        <time>2022-05-26T05:20:56Z</time>
      </trkpt>
      <trkpt lat="50.50218" lon="3.59168">
        <ele>37</ele>
        <time>2022-05-26T05:21:55Z</time>
      </trkpt>
      <trkpt lat="50.50214" lon="3.59134">
        <ele>38</ele>
        <time>2022-05-26T05:22:00Z</time>
      </trkpt>
      <trkpt lat="50.50202" lon="3.58921">
        <ele>42</ele>
        <time>2022-05-26T05:22:31Z</time>
      </trkpt>
      <trkpt lat="50.50205" lon="3.58894">
        <ele>42</ele>
        <time>2022-05-26T05:22:35Z</time>
      </trkpt>
      <trkpt lat="50.5022" lon="3.58881">
        <ele>42</ele>
        <time>2022-05-26T05:22:39Z</time>
      </trkpt>
      <trkpt lat="50.50287" lon="3.58881">
        <ele>43</ele>
        <time>2022-05-26T05:22:55Z</time>
      </trkpt>
      <trkpt lat="50.50341" lon="3.58884">
        <ele>43</ele>
        <time>2022-05-26T05:23:08Z</time>
      </trkpt>
    </trkseg>
  </trk>
</gpx>